Time,TemperatureF,DewpointF,PressureIn,WindDirection,WindDirectionDegrees,WindSpeedMPH,WindSpeedGustMPH,Humidity,HourlyPrecipIn,Conditions,Clouds,dailyrainin,SoftwareType,DateUTC
2013-06-16 00:01:00,54.1,45.3,29.91,East,91,0.0,0.0,72,0.00,,,0.00,Wunderground v.1.15,2013-06-16 04:01:00,
2013-06-16 00:02:00,54.1,45.3,29.91,East,91,0.0,0.0,72,0.00,,,0.00,Wunderground v.1.15,2013-06-16 04:02:00,
2013-06-16 00:03:00,54.3,45.1,29.91,East,91,0.0,0.0,71,0.00,,,0.00,Wunderground v.1.15,2013-06-16 04:03:00,
2013-06-16 00:06:00,54.7,45.1,29.91,West,266,0.0,3.0,70,0.00,,,0.00,Wunderground v.1.15,2013-06-16 04:06:00,
2013-06-16 00:08:00,54.9,45.3,29.91,SSW,199,0.0,3.0,70,0.00,,,0.00,Wunderground v.1.15,2013-06-16 04:08:00,
2013-06-16 00:09:00,55.0,45.0,29.91,SSW,199,0.0,3.0,69,0.00,,,0.00,Wunderground v.1.15,2013-06-16 04:09:00,
2013-06-16 00:11:00,55.1,44.7,29.91,SSW,199,0.0,0.0,68,0.00,,,0.00,Wunderground v.1.15,2013-06-16 04:11:00,
2013-06-16 00:13:00,55.3,44.9,29.91,NW,311,0.0,0.0,68,0.00,,,0.00,Wunderground v.1.15,2013-06-16 04:13:00,
2013-06-16 00:14:00,55.3,44.9,29.91,NW,311,0.0,0.0,68,0.00,,,0.00,Wunderground v.1.15,2013-06-16 04:14:00,
2013-06-16 00:18:00,55.5,45.1,29.91,NW,311,0.0,0.0,68,0.00,,,0.00,Wunderground v.1.15,2013-06-16 04:18:00,
2013-06-16 00:19:00,55.6,44.8,29.91,NW,311,0.0,0.0,67,0.00,,,0.00,Wunderground v.1.15,2013-06-16 04:19:00,
2013-06-16 00:20:00,55.6,44.8,29.90,NW,311,0.0,0.0,67,0.00,,,0.00,Wunderground v.1.15,2013-06-16 04:20:00,
2013-06-16 00:23:00,55.7,44.5,29.90,NW,311,0.0,0.0,66,0.00,,,0.00,Wunderground v.1.15,2013-06-16 04:23:00,
2013-06-16 00:24:00,55.7,44.5,29.90,NW,311,0.0,0.0,66,0.00,,,0.00,Wunderground v.1.15,2013-06-16 04:24:00,
2013-06-16 00:28:00,55.7,44.5,29.90,NW,311,0.0,0.0,66,0.00,,,0.00,Wunderground v.1.15,2013-06-16 04:28:00,
2013-06-16 00:29:00,55.7,44.5,29.90,NW,311,0.0,0.0,66,0.00,,,0.00,Wunderground v.1.15,2013-06-16 04:29:00,
2013-06-16 00:30:00,55.6,44.4,29.91,NW,311,0.0,0.0,66,0.00,,,0.00,Wunderground v.1.15,2013-06-16 04:30:00,
2013-06-16 00:31:00,55.6,44.4,29.90,NW,311,0.0,0.0,66,0.00,,,0.00,Wunderground v.1.15,2013-06-16 04:31:00,
2013-06-16 00:34:00,55.4,44.6,29.90,NW,311,0.0,0.0,67,0.00,,,0.00,Wunderground v.1.15,2013-06-16 04:34:00,
2013-06-16 00:35:00,55.4,44.6,29.90,NW,311,0.0,0.0,67,0.00,,,0.00,Wunderground v.1.15,2013-06-16 04:35:00,
2013-06-16 00:37:00,55.3,44.5,29.90,NW,311,0.0,0.0,67,0.00,,,0.00,Wunderground v.1.15,2013-06-16 04:37:00,
2013-06-16 00:39:00,55.3,44.5,29.90,NW,311,0.0,0.0,67,0.00,,,0.00,Wunderground v.1.15,2013-06-16 04:39:00,
2013-06-16 00:40:00,55.3,44.5,29.90,NW,311,0.0,0.0,67,0.00,,,0.00,Wunderground v.1.15,2013-06-16 04:40:00,
2013-06-16 00:41:00,55.3,44.5,29.90,NW,311,0.0,0.0,67,0.00,,,0.00,Wunderground v.1.15,2013-06-16 04:41:00,
2013-06-16 00:44:00,55.2,44.4,29.90,NW,311,0.0,0.0,67,0.00,,,0.00,Wunderground v.1.15,2013-06-16 04:44:00,
2013-06-16 00:46:00,55.2,44.4,29.90,NW,311,0.0,0.0,67,0.00,,,0.00,Wunderground v.1.15,2013-06-16 04:46:00,
2013-06-16 00:48:00,55.1,44.3,29.90,NW,311,0.0,0.0,67,0.00,,,0.00,Wunderground v.1.15,2013-06-16 04:48:00,
2013-06-16 00:49:00,55.1,44.3,29.90,NW,311,0.0,0.0,67,0.00,,,0.00,Wunderground v.1.15,2013-06-16 04:49:00,
2013-06-16 00:50:00,55.1,44.3,29.90,NW,311,0.0,0.0,67,0.00,,,0.00,Wunderground v.1.15,2013-06-16 04:50:00,
2013-06-16 00:51:00,55.1,43.9,29.90,NW,311,0.0,0.0,66,0.00,,,0.00,Wunderground v.1.15,2013-06-16 04:51:00,
2013-06-16 00:52:00,55.1,43.9,29.90,NW,311,0.0,0.0,66,0.00,,,0.00,Wunderground v.1.15,2013-06-16 04:52:00,
2013-06-16 00:55:00,55.1,44.3,29.90,NW,311,0.0,0.0,67,0.00,,,0.00,Wunderground v.1.15,2013-06-16 04:55:00,
2013-06-16 00:57:00,55.1,44.3,29.90,NW,311,0.0,0.0,67,0.00,,,0.00,Wunderground v.1.15,2013-06-16 04:57:00,
2013-06-16 00:59:00,55.1,44.3,29.90,NW,311,0.0,0.0,67,0.00,,,0.00,Wunderground v.1.15,2013-06-16 04:59:00,
2013-06-16 01:00:00,55.1,44.3,29.90,NW,311,0.0,0.0,67,0.00,,,0.00,Wunderground v.1.15,2013-06-16 05:00:00,
2013-06-16 01:01:00,55.0,44.2,29.90,NW,311,0.0,0.0,67,0.00,,,0.00,Wunderground v.1.15,2013-06-16 05:01:00,
2013-06-16 01:03:00,55.0,44.2,29.90,NW,311,0.0,0.0,67,0.00,,,0.00,Wunderground v.1.15,2013-06-16 05:03:00,
2013-06-16 01:06:00,55.1,44.3,29.90,NW,311,0.0,0.0,67,0.00,,,0.00,Wunderground v.1.15,2013-06-16 05:06:00,
2013-06-16 01:07:00,55.1,44.3,29.89,NW,311,0.0,0.0,67,0.00,,,0.00,Wunderground v.1.15,2013-06-16 05:07:00,
2013-06-16 01:09:00,55.1,44.3,29.90,NW,311,0.0,1.0,67,0.00,,,0.00,Wunderground v.1.15,2013-06-16 05:09:00,
2013-06-16 01:13:00,55.0,43.8,29.90,NW,311,0.0,0.0,66,0.00,,,0.00,Wunderground v.1.15,2013-06-16 05:13:00,
2013-06-16 01:14:00,55.0,43.8,29.90,NW,311,0.0,0.0,66,0.00,,,0.00,Wunderground v.1.15,2013-06-16 05:14:00,
2013-06-16 01:18:00,55.0,44.2,29.90,NW,311,0.0,0.0,67,0.00,,,0.00,Wunderground v.1.15,2013-06-16 05:18:00,
2013-06-16 01:19:00,55.0,44.2,29.90,NW,311,0.0,0.0,67,0.00,,,0.00,Wunderground v.1.15,2013-06-16 05:19:00,
2013-06-16 01:22:00,55.0,44.2,29.90,NW,311,0.0,0.0,67,0.00,,,0.00,Wunderground v.1.15,2013-06-16 05:22:00,
2013-06-16 01:23:00,55.0,43.8,29.90,NW,311,0.0,0.0,66,0.00,,,0.00,Wunderground v.1.15,2013-06-16 05:23:00,
2013-06-16 01:24:00,54.9,43.7,29.90,NW,311,0.0,0.0,66,0.00,,,0.00,Wunderground v.1.15,2013-06-16 05:24:00,
2013-06-16 01:27:00,55.0,43.8,29.90,NW,311,0.0,0.0,66,0.00,,,0.00,Wunderground v.1.15,2013-06-16 05:27:00,
2013-06-16 01:30:00,55.0,43.8,29.90,NW,311,0.0,0.0,66,0.00,,,0.00,Wunderground v.1.15,2013-06-16 05:30:00,
2013-06-16 01:34:00,55.0,43.8,29.90,NW,311,0.0,0.0,66,0.00,,,0.00,Wunderground v.1.15,2013-06-16 05:34:00,
2013-06-16 01:36:00,55.0,43.8,29.90,NW,311,0.0,0.0,66,0.00,,,0.00,Wunderground v.1.15,2013-06-16 05:36:00,
2013-06-16 01:40:00,55.0,43.8,29.90,NW,311,0.0,0.0,66,0.00,,,0.00,Wunderground v.1.15,2013-06-16 05:40:00,
2013-06-16 01:41:00,55.0,43.8,29.90,NW,311,0.0,0.0,66,0.00,,,0.00,Wunderground v.1.15,2013-06-16 05:41:00,
2013-06-16 01:42:00,55.0,43.8,29.90,North,360,1.0,1.0,66,0.00,,,0.00,Wunderground v.1.15,2013-06-16 05:42:00,
2013-06-16 01:43:00,55.0,43.8,29.90,North,360,0.0,1.0,66,0.00,,,0.00,Wunderground v.1.15,2013-06-16 05:43:00,
2013-06-16 01:44:00,55.1,43.5,29.90,North,355,0.0,1.0,65,0.00,,,0.00,Wunderground v.1.15,2013-06-16 05:44:00,
2013-06-16 01:47:00,55.3,43.7,29.90,NNW,333,0.0,3.0,65,0.00,,,0.00,Wunderground v.1.15,2013-06-16 05:47:00,
2013-06-16 01:48:00,55.4,43.8,29.90,NNW,329,1.0,3.0,65,0.00,,,0.00,Wunderground v.1.15,2013-06-16 05:48:00,
2013-06-16 01:49:00,55.5,43.5,29.90,NNW,329,0.0,3.0,64,0.00,,,0.00,Wunderground v.1.15,2013-06-16 05:49:00,
2013-06-16 01:52:00,55.8,43.8,29.90,NNW,329,0.0,0.0,64,0.00,,,0.00,Wunderground v.1.15,2013-06-16 05:52:00,
2013-06-16 01:53:00,55.8,44.2,29.90,NNW,329,0.0,0.0,65,0.00,,,0.00,Wunderground v.1.15,2013-06-16 05:53:00,
2013-06-16 01:54:00,55.9,43.9,29.90,North,5,2.0,2.0,64,0.00,,,0.00,Wunderground v.1.15,2013-06-16 05:54:00,
2013-06-16 01:56:00,55.9,43.9,29.90,North,355,0.0,2.0,64,0.00,,,0.00,Wunderground v.1.15,2013-06-16 05:56:00,
2013-06-16 01:58:00,56.0,44.0,29.90,North,355,0.0,2.0,64,0.00,,,0.00,Wunderground v.1.15,2013-06-16 05:58:00,
2013-06-16 02:01:00,56.0,44.0,29.90,North,355,1.0,1.0,64,0.00,,,0.00,Wunderground v.1.15,2013-06-16 06:01:00,
2013-06-16 02:02:00,56.0,44.0,29.90,North,355,0.0,1.0,64,0.00,,,0.00,Wunderground v.1.15,2013-06-16 06:02:00,
2013-06-16 02:03:00,56.0,44.0,29.90,North,355,0.0,1.0,64,0.00,,,0.00,Wunderground v.1.15,2013-06-16 06:03:00,
2013-06-16 02:06:00,56.0,43.6,29.90,North,355,0.0,2.0,63,0.00,,,0.00,Wunderground v.1.15,2013-06-16 06:06:00,
2013-06-16 02:07:00,56.0,43.6,29.90,North,355,0.0,2.0,63,0.00,,,0.00,Wunderground v.1.15,2013-06-16 06:07:00,
2013-06-16 02:09:00,56.0,43.6,29.90,North,355,0.0,2.0,63,0.00,,,0.00,Wunderground v.1.15,2013-06-16 06:09:00,
2013-06-16 02:11:00,56.0,43.6,29.90,North,355,0.0,0.0,63,0.00,,,0.00,Wunderground v.1.15,2013-06-16 06:11:00,
2013-06-16 02:12:00,55.9,43.5,29.90,North,355,0.0,0.0,63,0.00,,,0.00,Wunderground v.1.15,2013-06-16 06:12:00,
2013-06-16 02:14:00,55.9,43.5,29.90,North,355,0.0,1.0,63,0.00,,,0.00,Wunderground v.1.15,2013-06-16 06:14:00,
2013-06-16 02:17:00,55.9,43.5,29.90,North,355,0.0,1.0,63,0.00,,,0.00,Wunderground v.1.15,2013-06-16 06:17:00,
2013-06-16 02:18:00,55.9,43.5,29.90,North,355,0.0,1.0,63,0.00,,,0.00,Wunderground v.1.15,2013-06-16 06:18:00,
2013-06-16 02:19:00,55.9,43.5,29.90,North,355,0.0,1.0,63,0.00,,,0.00,Wunderground v.1.15,2013-06-16 06:19:00,
2013-06-16 02:22:00,55.9,43.5,29.90,North,9,0.0,1.0,63,0.00,,,0.00,Wunderground v.1.15,2013-06-16 06:22:00,
2013-06-16 02:23:00,56.0,43.6,29.90,North,9,0.0,1.0,63,0.00,,,0.00,Wunderground v.1.15,2013-06-16 06:23:00,
2013-06-16 02:24:00,56.0,43.6,29.90,NW,323,1.0,2.0,63,0.00,,,0.00,Wunderground v.1.15,2013-06-16 06:24:00,
2013-06-16 02:27:00,56.2,43.8,29.90,NNW,332,0.0,2.0,63,0.00,,,0.00,Wunderground v.1.15,2013-06-16 06:27:00,
2013-06-16 02:28:00,56.2,43.8,29.90,NNW,332,0.0,2.0,63,0.00,,,0.00,Wunderground v.1.15,2013-06-16 06:28:00,
2013-06-16 02:30:00,56.3,43.9,29.90,NNW,332,0.0,2.0,63,0.00,,,0.00,Wunderground v.1.15,2013-06-16 06:30:00,
2013-06-16 02:33:00,56.4,43.5,29.90,West,271,0.0,1.0,62,0.00,,,0.00,Wunderground v.1.15,2013-06-16 06:33:00,
2013-06-16 02:35:00,56.5,43.6,29.90,West,271,0.0,1.0,62,0.00,,,0.00,Wunderground v.1.15,2013-06-16 06:35:00,
2013-06-16 02:38:00,56.6,43.7,29.90,NW,324,0.0,1.0,62,0.00,,,0.00,Wunderground v.1.15,2013-06-16 06:38:00,
2013-06-16 02:39:00,56.6,43.3,29.90,NW,324,0.0,1.0,61,0.00,,,0.00,Wunderground v.1.15,2013-06-16 06:39:00,
2013-06-16 02:40:00,56.7,43.8,29.90,NW,324,0.0,0.0,62,0.00,,,0.00,Wunderground v.1.15,2013-06-16 06:40:00,
2013-06-16 02:43:00,56.8,43.5,29.90,NW,324,0.0,0.0,61,0.00,,,0.00,Wunderground v.1.15,2013-06-16 06:43:00,
2013-06-16 02:44:00,56.8,43.5,29.90,NW,324,0.0,1.0,61,0.00,,,0.00,Wunderground v.1.15,2013-06-16 06:44:00,
2013-06-16 02:46:00,56.9,43.6,29.90,NW,324,0.0,1.0,61,0.00,,,0.00,Wunderground v.1.15,2013-06-16 06:46:00,
2013-06-16 02:48:00,57.0,43.7,29.90,NW,324,0.0,1.0,61,0.00,,,0.00,Wunderground v.1.15,2013-06-16 06:48:00,
2013-06-16 02:49:00,57.0,43.7,29.90,NW,324,0.0,1.0,61,0.00,,,0.00,Wunderground v.1.15,2013-06-16 06:49:00,
2013-06-16 02:52:00,57.1,43.8,29.90,NW,324,0.0,0.0,61,0.00,,,0.00,Wunderground v.1.15,2013-06-16 06:52:00,
2013-06-16 02:54:00,57.2,43.4,29.90,South,186,0.0,2.0,60,0.00,,,0.00,Wunderground v.1.15,2013-06-16 06:54:00,
2013-06-16 02:57:00,57.4,43.6,29.90,SSW,205,0.0,2.0,60,0.00,,,0.00,Wunderground v.1.15,2013-06-16 06:57:00,
2013-06-16 02:59:00,57.5,43.7,29.90,WSW,239,0.0,2.0,60,0.00,,,0.00,Wunderground v.1.15,2013-06-16 06:59:00,
2013-06-16 03:00:00,57.6,44.2,29.90,WSW,239,0.0,2.0,61,0.00,,,0.00,Wunderground v.1.15,2013-06-16 07:00:00,
2013-06-16 03:02:00,57.6,43.8,29.90,SSW,198,1.0,1.0,60,0.00,,,0.00,Wunderground v.1.15,2013-06-16 07:02:00,
2013-06-16 03:04:00,57.6,44.2,29.89,SSE,165,0.0,2.0,61,0.00,,,0.00,Wunderground v.1.15,2013-06-16 07:04:00,
2013-06-16 03:05:00,57.6,44.2,29.90,SSE,165,0.0,2.0,61,0.00,,,0.00,Wunderground v.1.15,2013-06-16 07:05:00,
2013-06-16 03:07:00,57.5,43.7,29.90,SSW,206,0.0,2.0,60,0.00,,,0.00,Wunderground v.1.15,2013-06-16 07:07:00,
2013-06-16 03:09:00,57.5,44.1,29.90,SSW,206,0.0,2.0,61,0.00,,,0.00,Wunderground v.1.15,2013-06-16 07:09:00,
2013-06-16 03:10:00,57.5,44.6,29.90,SSW,206,0.0,2.0,62,0.00,,,0.00,Wunderground v.1.15,2013-06-16 07:10:00,
2013-06-16 03:13:00,57.4,44.1,29.90,SSW,206,0.0,1.0,61,0.00,,,0.00,Wunderground v.1.15,2013-06-16 07:13:00,
2013-06-16 03:15:00,57.3,44.0,29.90,SSW,206,0.0,1.0,61,0.00,,,0.00,Wunderground v.1.15,2013-06-16 07:15:00,
2013-06-16 03:16:00,57.3,44.0,29.90,SSW,206,0.0,1.0,61,0.00,,,0.00,Wunderground v.1.15,2013-06-16 07:16:00,
2013-06-16 03:18:00,57.2,43.9,29.89,SSW,206,0.0,1.0,61,0.00,,,0.00,Wunderground v.1.15,2013-06-16 07:18:00,
2013-06-16 03:20:00,57.2,43.9,29.89,SSW,206,0.0,0.0,61,0.00,,,0.00,Wunderground v.1.15,2013-06-16 07:20:00,
2013-06-16 03:21:00,57.2,43.9,29.89,SSW,206,0.0,0.0,61,0.00,,,0.00,Wunderground v.1.15,2013-06-16 07:21:00,
2013-06-16 03:24:00,57.1,43.8,29.89,NW,313,0.0,2.0,61,0.00,,,0.00,Wunderground v.1.15,2013-06-16 07:24:00,
2013-06-16 03:25:00,57.2,43.9,29.89,WNW,300,0.0,2.0,61,0.00,,,0.00,Wunderground v.1.15,2013-06-16 07:25:00,
2013-06-16 03:26:00,57.2,43.9,29.89,West,281,0.0,2.0,61,0.00,,,0.00,Wunderground v.1.15,2013-06-16 07:26:00,
2013-06-16 03:29:00,57.3,43.5,29.89,West,281,0.0,2.0,60,0.00,,,0.00,Wunderground v.1.15,2013-06-16 07:29:00,
2013-06-16 03:31:00,57.4,43.6,29.89,West,281,0.0,0.0,60,0.00,,,0.00,Wunderground v.1.15,2013-06-16 07:31:00,
2013-06-16 03:32:00,57.4,43.6,29.89,West,281,0.0,0.0,60,0.00,,,0.00,Wunderground v.1.15,2013-06-16 07:32:00,
2013-06-16 03:35:00,57.4,43.6,29.89,West,281,0.0,0.0,60,0.00,,,0.00,Wunderground v.1.15,2013-06-16 07:35:00,
2013-06-16 03:36:00,57.4,44.1,29.89,West,281,0.0,0.0,61,0.00,,,0.00,Wunderground v.1.15,2013-06-16 07:36:00,
2013-06-16 03:37:00,57.4,43.6,29.89,West,281,0.0,0.0,60,0.00,,,0.00,Wunderground v.1.15,2013-06-16 07:37:00,
2013-06-16 03:40:00,57.4,43.6,29.89,West,281,0.0,0.0,60,0.00,,,0.00,Wunderground v.1.15,2013-06-16 07:40:00,
2013-06-16 03:41:00,57.4,43.6,29.89,West,281,0.0,0.0,60,0.00,,,0.00,Wunderground v.1.15,2013-06-16 07:41:00,
2013-06-16 03:42:00,57.4,43.6,29.89,West,281,0.0,0.0,60,0.00,,,0.00,Wunderground v.1.15,2013-06-16 07:42:00,
2013-06-16 03:46:00,57.4,43.6,29.89,West,281,0.0,1.0,60,0.00,,,0.00,Wunderground v.1.15,2013-06-16 07:46:00,
2013-06-16 03:47:00,57.4,44.1,29.89,West,281,0.0,1.0,61,0.00,,,0.00,Wunderground v.1.15,2013-06-16 07:47:00,
2013-06-16 03:51:00,57.4,43.6,29.89,West,281,1.0,1.0,60,0.00,,,0.00,Wunderground v.1.15,2013-06-16 07:51:00,
2013-06-16 03:52:00,57.3,43.5,29.89,West,281,0.0,1.0,60,0.00,,,0.00,Wunderground v.1.15,2013-06-16 07:52:00,
2013-06-16 03:56:00,57.4,44.1,29.88,West,281,0.0,1.0,61,0.00,,,0.00,Wunderground v.1.15,2013-06-16 07:56:00,
2013-06-16 03:57:00,57.4,44.1,29.88,West,281,0.0,1.0,61,0.00,,,0.00,Wunderground v.1.15,2013-06-16 07:57:00,
2013-06-16 03:58:00,57.4,44.1,29.88,West,281,0.0,1.0,61,0.00,,,0.00,Wunderground v.1.15,2013-06-16 07:58:00,
2013-06-16 04:01:00,57.3,44.4,29.88,West,281,0.0,1.0,62,0.00,,,0.00,Wunderground v.1.15,2013-06-16 08:01:00,
2013-06-16 04:02:00,57.3,44.4,29.88,West,281,0.0,1.0,62,0.00,,,0.00,Wunderground v.1.15,2013-06-16 08:02:00,
2013-06-16 04:03:00,57.3,44.4,29.88,West,281,0.0,1.0,62,0.00,,,0.00,Wunderground v.1.15,2013-06-16 08:03:00,
2013-06-16 04:04:00,57.3,44.8,29.88,West,281,0.0,1.0,63,0.00,,,0.00,Wunderground v.1.15,2013-06-16 08:04:00,
2013-06-16 04:06:00,57.2,44.3,29.88,West,281,0.0,1.0,62,0.00,,,0.00,Wunderground v.1.15,2013-06-16 08:06:00,
2013-06-16 04:08:00,57.2,43.9,29.88,West,281,0.0,1.0,61,0.00,,,0.00,Wunderground v.1.15,2013-06-16 08:08:00,
2013-06-16 04:09:00,57.2,43.9,29.88,West,281,0.0,1.0,61,0.00,,,0.00,Wunderground v.1.15,2013-06-16 08:09:00,
2013-06-16 04:11:00,57.2,44.3,29.88,West,281,0.0,0.0,62,0.00,,,0.00,Wunderground v.1.15,2013-06-16 08:11:00,
2013-06-16 04:13:00,57.1,44.2,29.88,West,281,0.0,0.0,62,0.00,,,0.00,Wunderground v.1.15,2013-06-16 08:13:00,
2013-06-16 04:14:00,57.0,44.1,29.88,West,281,0.0,1.0,62,0.00,,,0.00,Wunderground v.1.15,2013-06-16 08:14:00,
2013-06-16 04:16:00,56.9,44.0,29.88,West,281,0.0,1.0,62,0.00,,,0.00,Wunderground v.1.15,2013-06-16 08:16:00,
2013-06-16 04:18:00,56.7,43.8,29.88,West,281,1.0,1.0,62,0.00,,,0.00,Wunderground v.1.15,2013-06-16 08:18:00,
2013-06-16 04:19:00,56.7,44.2,29.88,West,281,0.0,1.0,63,0.00,,,0.00,Wunderground v.1.15,2013-06-16 08:19:00,
2013-06-16 04:22:00,56.4,44.4,29.88,West,281,0.0,0.0,64,0.00,,,0.00,Wunderground v.1.15,2013-06-16 08:22:00,
2013-06-16 04:23:00,56.3,43.9,29.88,West,281,0.0,0.0,63,0.00,,,0.00,Wunderground v.1.15,2013-06-16 08:23:00,
2013-06-16 04:24:00,56.2,43.8,29.88,West,281,0.0,0.0,63,0.00,,,0.00,Wunderground v.1.15,2013-06-16 08:24:00,
2013-06-16 04:27:00,56.0,44.0,29.88,West,281,0.0,0.0,64,0.00,,,0.00,Wunderground v.1.15,2013-06-16 08:27:00,
2013-06-16 04:28:00,56.0,44.0,29.88,West,281,0.0,0.0,64,0.00,,,0.00,Wunderground v.1.15,2013-06-16 08:28:00,
2013-06-16 04:29:00,55.9,43.9,29.88,West,281,0.0,0.0,64,0.00,,,0.00,Wunderground v.1.15,2013-06-16 08:29:00,
2013-06-16 04:30:00,55.8,43.8,29.88,West,281,0.0,1.0,64,0.00,,,0.00,Wunderground v.1.15,2013-06-16 08:30:00,
2013-06-16 04:32:00,55.6,44.0,29.88,West,281,0.0,0.0,65,0.00,,,0.00,Wunderground v.1.15,2013-06-16 08:32:00,
2013-06-16 04:33:00,55.4,44.2,29.88,West,281,0.0,1.0,66,0.00,,,0.00,Wunderground v.1.15,2013-06-16 08:33:00,
2013-06-16 04:34:00,55.3,43.7,29.88,West,281,0.0,1.0,65,0.00,,,0.00,Wunderground v.1.15,2013-06-16 08:34:00,
2013-06-16 04:35:00,55.3,43.7,29.88,West,281,0.0,1.0,65,0.00,,,0.00,Wunderground v.1.15,2013-06-16 08:35:00,
2013-06-16 04:37:00,55.1,44.7,29.88,West,281,0.0,1.0,68,0.00,,,0.00,Wunderground v.1.15,2013-06-16 08:37:00,
2013-06-16 04:38:00,55.0,45.0,29.88,West,281,0.0,1.0,69,0.00,,,0.00,Wunderground v.1.15,2013-06-16 08:38:00,
2013-06-16 04:39:00,54.8,45.2,29.88,West,281,0.0,2.0,70,0.00,,,0.00,Wunderground v.1.15,2013-06-16 08:39:00,
2013-06-16 04:40:00,54.7,44.7,29.88,West,281,0.0,0.0,69,0.00,,,0.00,Wunderground v.1.15,2013-06-16 08:40:00,
2013-06-16 04:41:00,54.6,44.6,29.88,West,281,0.0,1.0,69,0.00,,,0.00,Wunderground v.1.15,2013-06-16 08:41:00,
2013-06-16 04:42:00,54.4,44.1,29.88,West,281,0.0,1.0,68,0.00,,,0.00,Wunderground v.1.15,2013-06-16 08:42:00,
2013-06-16 04:44:00,54.2,43.9,29.88,West,281,0.0,1.0,68,0.00,,,0.00,Wunderground v.1.15,2013-06-16 08:44:00,
2013-06-16 04:45:00,54.1,43.4,29.88,West,281,0.0,1.0,67,0.00,,,0.00,Wunderground v.1.15,2013-06-16 08:45:00,
2013-06-16 04:46:00,54.1,43.8,29.88,West,281,0.0,1.0,68,0.00,,,0.00,Wunderground v.1.15,2013-06-16 08:46:00,
2013-06-16 04:48:00,54.2,44.2,29.88,West,281,0.0,1.0,69,0.00,,,0.00,Wunderground v.1.15,2013-06-16 08:48:00,
2013-06-16 04:49:00,54.1,43.8,29.88,West,281,0.0,1.0,68,0.00,,,0.00,Wunderground v.1.15,2013-06-16 08:49:00,
2013-06-16 04:50:00,54.1,44.5,29.88,West,281,0.0,0.0,70,0.00,,,0.00,Wunderground v.1.15,2013-06-16 08:50:00,
2013-06-16 04:51:00,54.1,44.5,29.88,West,281,0.0,0.0,70,0.00,,,0.00,Wunderground v.1.15,2013-06-16 08:51:00,
2013-06-16 04:52:00,54.1,44.5,29.88,West,281,0.0,0.0,70,0.00,,,0.00,Wunderground v.1.15,2013-06-16 08:52:00,
2013-06-16 04:53:00,54.0,44.1,29.88,West,281,0.0,0.0,69,0.00,,,0.00,Wunderground v.1.15,2013-06-16 08:53:00,
2013-06-16 04:55:00,54.0,43.7,29.88,West,281,0.0,0.0,68,0.00,,,0.00,Wunderground v.1.15,2013-06-16 08:55:00,
2013-06-16 04:57:00,54.0,43.7,29.88,West,281,0.0,0.0,68,0.00,,,0.00,Wunderground v.1.15,2013-06-16 08:57:00,
2013-06-16 04:58:00,54.0,43.7,29.88,West,281,0.0,0.0,68,0.00,,,0.00,Wunderground v.1.15,2013-06-16 08:58:00,
2013-06-16 05:01:00,54.1,43.8,29.88,West,281,0.0,0.0,68,0.00,,,0.00,Wunderground v.1.15,2013-06-16 09:01:00,
2013-06-16 05:02:00,54.1,43.8,29.88,West,281,0.0,0.0,68,0.00,,,0.00,Wunderground v.1.15,2013-06-16 09:02:00,
2013-06-16 05:03:00,54.1,44.2,29.88,West,281,0.0,0.0,69,0.00,,,0.00,Wunderground v.1.15,2013-06-16 09:03:00,
2013-06-16 05:06:00,54.0,43.7,29.88,West,281,0.0,0.0,68,0.00,,,0.00,Wunderground v.1.15,2013-06-16 09:06:00,
2013-06-16 05:07:00,54.0,44.1,29.88,West,281,0.0,0.0,69,0.00,,,0.00,Wunderground v.1.15,2013-06-16 09:07:00,
2013-06-16 05:08:00,54.0,44.4,29.88,West,281,0.0,0.0,70,0.00,,,0.00,Wunderground v.1.15,2013-06-16 09:08:00,
2013-06-16 05:12:00,53.7,43.8,29.89,West,281,0.0,0.0,69,0.00,,,0.00,Wunderground v.1.15,2013-06-16 09:12:00,
2013-06-16 05:13:00,53.7,43.8,29.89,West,281,0.0,0.0,69,0.00,,,0.00,Wunderground v.1.15,2013-06-16 09:13:00,
2013-06-16 05:17:00,53.6,44.0,29.88,West,281,0.0,0.0,70,0.00,,,0.00,Wunderground v.1.15,2013-06-16 09:17:00,
2013-06-16 05:18:00,53.5,44.3,29.88,West,281,0.0,0.0,71,0.00,,,0.00,Wunderground v.1.15,2013-06-16 09:18:00,
2013-06-16 05:19:00,53.5,44.0,29.88,West,281,0.0,0.0,70,0.00,,,0.00,Wunderground v.1.15,2013-06-16 09:19:00,
2013-06-16 05:22:00,53.4,43.5,29.89,West,281,0.0,0.0,69,0.00,,,0.00,Wunderground v.1.15,2013-06-16 09:22:00,
2013-06-16 05:23:00,53.4,43.9,29.89,West,281,0.0,0.0,70,0.00,,,0.00,Wunderground v.1.15,2013-06-16 09:23:00,
2013-06-16 05:24:00,53.4,43.5,29.89,West,281,0.0,1.0,69,0.00,,,0.00,Wunderground v.1.15,2013-06-16 09:24:00,
2013-06-16 05:25:00,53.4,43.5,29.89,West,281,0.0,1.0,69,0.00,,,0.00,Wunderground v.1.15,2013-06-16 09:25:00,
2013-06-16 05:27:00,53.4,43.5,29.89,West,281,0.0,1.0,69,0.00,,,0.00,Wunderground v.1.15,2013-06-16 09:27:00,
2013-06-16 05:28:00,53.4,43.5,29.89,West,281,0.0,1.0,69,0.00,,,0.00,Wunderground v.1.15,2013-06-16 09:28:00,
2013-06-16 05:29:00,53.5,43.2,29.89,West,281,0.0,1.0,68,0.00,,,0.00,Wunderground v.1.15,2013-06-16 09:29:00,
2013-06-16 05:30:00,53.5,43.2,29.88,West,281,0.0,1.0,68,0.00,,,0.00,Wunderground v.1.15,2013-06-16 09:30:00,
2013-06-16 05:32:00,53.6,43.3,29.88,West,281,0.0,0.0,68,0.00,,,0.00,Wunderground v.1.15,2013-06-16 09:32:00,
2013-06-16 05:34:00,53.7,43.4,29.88,West,281,0.0,1.0,68,0.00,,,0.00,Wunderground v.1.15,2013-06-16 09:34:00,
2013-06-16 05:35:00,53.7,43.4,29.88,West,281,0.0,1.0,68,0.00,,,0.00,Wunderground v.1.15,2013-06-16 09:35:00,
2013-06-16 05:37:00,53.9,44.3,29.88,West,281,1.0,1.0,70,0.00,,,0.00,Wunderground v.1.15,2013-06-16 09:37:00,
2013-06-16 05:39:00,53.8,44.2,29.88,West,281,0.0,1.0,70,0.00,,,0.00,Wunderground v.1.15,2013-06-16 09:39:00,
2013-06-16 05:40:00,53.8,43.9,29.88,West,281,0.0,0.0,69,0.00,,,0.00,Wunderground v.1.15,2013-06-16 09:40:00,
2013-06-16 05:43:00,53.8,43.9,29.88,West,281,0.0,0.0,69,0.00,,,0.00,Wunderground v.1.15,2013-06-16 09:43:00,
2013-06-16 05:44:00,53.8,43.9,29.88,West,281,0.0,0.0,69,0.00,,,0.00,Wunderground v.1.15,2013-06-16 09:44:00,
2013-06-16 05:45:00,53.8,43.9,29.88,West,281,0.0,0.0,69,0.00,,,0.00,Wunderground v.1.15,2013-06-16 09:45:00,
2013-06-16 05:48:00,53.9,43.2,29.88,West,281,0.0,0.0,67,0.00,,,0.00,Wunderground v.1.15,2013-06-16 09:48:00,
2013-06-16 05:50:00,54.0,43.3,29.89,West,281,0.0,0.0,67,0.00,,,0.00,Wunderground v.1.15,2013-06-16 09:50:00,
2013-06-16 05:53:00,54.2,43.5,29.89,West,281,0.0,0.0,67,0.00,,,0.00,Wunderground v.1.15,2013-06-16 09:53:00,
2013-06-16 05:55:00,54.2,43.5,29.89,West,281,0.0,0.0,67,0.00,,,0.00,Wunderground v.1.15,2013-06-16 09:55:00,
2013-06-16 05:56:00,54.2,43.5,29.89,West,281,0.0,0.0,67,0.00,,,0.00,Wunderground v.1.15,2013-06-16 09:56:00,
2013-06-16 05:58:00,54.3,44.0,29.88,West,281,0.0,0.0,68,0.00,,,0.00,Wunderground v.1.15,2013-06-16 09:58:00,
2013-06-16 06:00:00,54.2,43.1,29.89,West,281,0.0,0.0,66,0.00,,,0.00,Wunderground v.1.15,2013-06-16 10:00:00,
2013-06-16 06:01:00,54.3,43.6,29.89,West,281,0.0,0.0,67,0.00,,,0.00,Wunderground v.1.15,2013-06-16 10:01:00,
2013-06-16 06:03:00,54.2,44.2,29.88,West,281,0.0,0.0,69,0.00,,,0.00,Wunderground v.1.15,2013-06-16 10:03:00,
2013-06-16 06:05:00,54.2,43.9,29.88,West,281,0.0,1.0,68,0.00,,,0.00,Wunderground v.1.15,2013-06-16 10:05:00,
2013-06-16 06:06:00,54.1,44.9,29.88,West,281,0.0,1.0,71,0.00,,,0.00,Wunderground v.1.15,2013-06-16 10:06:00,
2013-06-16 06:09:00,53.8,45.0,29.88,West,281,0.0,1.0,72,0.00,,,0.00,Wunderground v.1.15,2013-06-16 10:09:00,
2013-06-16 06:10:00,53.6,45.5,29.88,West,281,0.0,0.0,74,0.00,,,0.00,Wunderground v.1.15,2013-06-16 10:10:00,
2013-06-16 06:11:00,53.6,45.5,29.88,West,281,0.0,0.0,74,0.00,,,0.00,Wunderground v.1.15,2013-06-16 10:11:00,
2013-06-16 06:12:00,53.4,45.3,29.88,West,281,0.0,1.0,74,0.00,,,0.00,Wunderground v.1.15,2013-06-16 10:12:00,
2013-06-16 06:14:00,53.4,43.5,29.88,West,281,0.0,1.0,69,0.00,,,0.00,Wunderground v.1.15,2013-06-16 10:14:00,
2013-06-16 06:15:00,53.4,45.3,29.88,West,281,0.0,1.0,74,0.00,,,0.00,Wunderground v.1.15,2013-06-16 10:15:00,
2013-06-16 06:16:00,53.3,44.5,29.88,West,281,0.0,1.0,72,0.00,,,0.00,Wunderground v.1.15,2013-06-16 10:16:00,
2013-06-16 06:17:00,53.3,44.5,29.88,West,281,0.0,1.0,72,0.00,,,0.00,Wunderground v.1.15,2013-06-16 10:17:00,
2013-06-16 06:19:00,53.4,45.0,29.88,West,281,0.0,1.0,73,0.00,,,0.00,Wunderground v.1.15,2013-06-16 10:19:00,
2013-06-16 06:20:00,53.4,44.2,29.89,West,281,0.0,0.0,71,0.00,,,0.00,Wunderground v.1.15,2013-06-16 10:20:00,
2013-06-16 06:22:00,53.5,45.1,29.89,West,281,0.0,0.0,73,0.00,,,0.00,Wunderground v.1.15,2013-06-16 10:22:00,
2013-06-16 06:25:00,53.5,44.7,29.89,West,281,0.0,0.0,72,0.00,,,0.00,Wunderground v.1.15,2013-06-16 10:25:00,
2013-06-16 06:27:00,53.6,44.8,29.89,West,281,0.0,1.0,72,0.00,,,0.00,Wunderground v.1.15,2013-06-16 10:27:00,
2013-06-16 06:30:00,53.6,45.2,29.89,West,281,0.0,0.0,73,0.00,,,0.00,Wunderground v.1.15,2013-06-16 10:30:00,
2013-06-16 06:31:00,53.6,45.5,29.89,West,281,0.0,0.0,74,0.00,,,0.00,Wunderground v.1.15,2013-06-16 10:31:00,
2013-06-16 06:32:00,53.7,45.2,29.89,West,281,0.0,0.0,73,0.00,,,0.00,Wunderground v.1.15,2013-06-16 10:32:00,
2013-06-16 06:33:00,53.7,45.2,29.89,West,281,0.0,0.0,73,0.00,,,0.00,Wunderground v.1.15,2013-06-16 10:33:00,
2013-06-16 06:35:00,53.6,44.8,29.89,West,281,0.0,0.0,72,0.00,,,0.00,Wunderground v.1.15,2013-06-16 10:35:00,
2013-06-16 06:36:00,53.6,44.0,29.89,West,281,0.0,0.0,70,0.00,,,0.00,Wunderground v.1.15,2013-06-16 10:36:00,
2013-06-16 06:38:00,53.7,43.8,29.89,West,281,0.0,0.0,69,0.00,,,0.00,Wunderground v.1.15,2013-06-16 10:38:00,
2013-06-16 06:41:00,53.8,43.5,29.89,West,281,0.0,0.0,68,0.00,,,0.00,Wunderground v.1.15,2013-06-16 10:41:00,
2013-06-16 06:43:00,53.9,44.0,29.89,West,281,0.0,0.0,69,0.00,,,0.00,Wunderground v.1.15,2013-06-16 10:43:00,
2013-06-16 06:46:00,54.0,43.7,29.89,West,281,0.0,1.0,68,0.00,,,0.00,Wunderground v.1.15,2013-06-16 10:46:00,
2013-06-16 06:48:00,54.1,44.9,29.88,West,281,0.0,1.0,71,0.00,,,0.00,Wunderground v.1.15,2013-06-16 10:48:00,
2013-06-16 06:51:00,54.3,44.3,29.88,West,281,0.0,0.0,69,0.00,,,0.00,Wunderground v.1.15,2013-06-16 10:51:00,
2013-06-16 06:53:00,54.4,43.7,29.89,West,281,1.0,4.0,67,0.00,,,0.00,Wunderground v.1.15,2013-06-16 10:53:00,
2013-06-16 06:54:00,54.4,43.7,29.89,West,281,0.0,4.0,67,0.00,,,0.00,Wunderground v.1.15,2013-06-16 10:54:00,
2013-06-16 06:56:00,54.6,44.2,29.89,West,281,0.0,4.0,68,0.00,,,0.00,Wunderground v.1.15,2013-06-16 10:56:00,
2013-06-16 06:58:00,54.7,43.6,29.88,West,281,0.0,4.0,66,0.00,,,0.00,Wunderground v.1.15,2013-06-16 10:58:00,
2013-06-16 06:59:00,54.7,43.6,29.88,West,281,0.0,4.0,66,0.00,,,0.00,Wunderground v.1.15,2013-06-16 10:59:00,
2013-06-16 07:02:00,54.8,44.0,29.88,West,281,0.0,0.0,67,0.00,,,0.00,Wunderground v.1.15,2013-06-16 11:02:00,
2013-06-16 07:04:00,54.8,44.8,29.88,West,281,0.0,0.0,69,0.00,,,0.00,Wunderground v.1.15,2013-06-16 11:04:00,
2013-06-16 07:07:00,54.9,44.5,29.89,West,281,0.0,1.0,68,0.00,,,0.00,Wunderground v.1.15,2013-06-16 11:07:00,
2013-06-16 07:08:00,54.9,44.5,29.89,West,281,0.0,1.0,68,0.00,,,0.00,Wunderground v.1.15,2013-06-16 11:08:00,
2013-06-16 07:09:00,54.9,43.7,29.89,West,281,0.0,1.0,66,0.00,,,0.00,Wunderground v.1.15,2013-06-16 11:09:00,
2013-06-16 07:10:00,54.9,44.1,29.89,West,281,0.0,1.0,67,0.00,,,0.00,Wunderground v.1.15,2013-06-16 11:10:00,
2013-06-16 07:11:00,54.9,44.9,29.89,West,281,0.0,0.0,69,0.00,,,0.00,Wunderground v.1.15,2013-06-16 11:11:00,
2013-06-16 07:12:00,55.0,45.4,29.89,West,281,2.0,2.0,70,0.00,,,0.00,Wunderground v.1.15,2013-06-16 11:12:00,
2013-06-16 07:13:00,54.9,43.7,29.89,West,281,0.0,2.0,66,0.00,,,0.00,Wunderground v.1.15,2013-06-16 11:13:00,
2013-06-16 07:14:00,55.0,43.8,29.89,West,281,0.0,2.0,66,0.00,,,0.00,Wunderground v.1.15,2013-06-16 11:14:00,
2013-06-16 07:15:00,55.0,44.6,29.89,West,281,0.0,2.0,68,0.00,,,0.00,Wunderground v.1.15,2013-06-16 11:15:00,
2013-06-16 07:16:00,55.0,45.0,29.89,West,281,0.0,2.0,69,0.00,,,0.00,Wunderground v.1.15,2013-06-16 11:16:00,
2013-06-16 07:18:00,55.0,46.1,29.89,West,281,0.0,2.0,72,0.00,,,0.00,Wunderground v.1.15,2013-06-16 11:18:00,
2013-06-16 07:19:00,55.0,45.0,29.89,West,281,0.0,2.0,69,0.00,,,0.00,Wunderground v.1.15,2013-06-16 11:19:00,
2013-06-16 07:20:00,55.0,45.4,29.89,West,281,0.0,0.0,70,0.00,,,0.00,Wunderground v.1.15,2013-06-16 11:20:00,
2013-06-16 07:21:00,55.0,46.5,29.89,West,281,0.0,0.0,73,0.00,,,0.00,Wunderground v.1.15,2013-06-16 11:21:00,
2013-06-16 07:23:00,55.0,43.8,29.89,WNW,298,3.0,5.0,66,0.00,,,0.00,Wunderground v.1.15,2013-06-16 11:23:00,
2013-06-16 07:25:00,55.0,44.6,29.89,WNW,298,0.0,5.0,68,0.00,,,0.00,Wunderground v.1.15,2013-06-16 11:25:00,
2013-06-16 07:26:00,55.0,43.8,29.89,WNW,298,0.0,5.0,66,0.00,,,0.00,Wunderground v.1.15,2013-06-16 11:26:00,
2013-06-16 07:28:00,55.0,43.4,29.89,WNW,298,0.0,5.0,65,0.00,,,0.00,Wunderground v.1.15,2013-06-16 11:28:00,
2013-06-16 07:29:00,55.1,43.5,29.89,WNW,298,0.0,5.0,65,0.00,,,0.00,Wunderground v.1.15,2013-06-16 11:29:00,
2013-06-16 07:30:00,55.1,44.7,29.89,WNW,298,0.0,1.0,68,0.00,,,0.00,Wunderground v.1.15,2013-06-16 11:30:00,
2013-06-16 07:31:00,55.2,44.4,29.89,WNW,298,0.0,1.0,67,0.00,,,0.00,Wunderground v.1.15,2013-06-16 11:31:00,
2013-06-16 07:33:00,55.3,44.9,29.89,SW,235,0.0,2.0,68,0.00,,,0.00,Wunderground v.1.15,2013-06-16 11:33:00,
2013-06-16 07:34:00,55.3,46.1,29.89,SW,235,0.0,2.0,71,0.00,,,0.00,Wunderground v.1.15,2013-06-16 11:34:00,
2013-06-16 07:35:00,55.3,46.1,29.88,SW,235,0.0,2.0,71,0.00,,,0.00,Wunderground v.1.15,2013-06-16 11:35:00,
2013-06-16 07:36:00,55.3,46.1,29.88,SW,235,0.0,2.0,71,0.00,,,0.00,Wunderground v.1.15,2013-06-16 11:36:00,
2013-06-16 07:38:00,55.3,44.1,29.89,SW,235,0.0,2.0,66,0.00,,,0.00,Wunderground v.1.15,2013-06-16 11:38:00,
2013-06-16 07:40:00,55.3,44.5,29.89,SW,235,0.0,2.0,67,0.00,,,0.00,Wunderground v.1.15,2013-06-16 11:40:00,
2013-06-16 07:41:00,55.3,44.9,29.88,SW,235,0.0,0.0,68,0.00,,,0.00,Wunderground v.1.15,2013-06-16 11:41:00,
2013-06-16 07:43:00,55.4,43.8,29.88,WSW,248,0.0,0.0,65,0.00,,,0.00,Wunderground v.1.15,2013-06-16 11:43:00,
2013-06-16 07:45:00,55.4,43.8,29.88,WSW,248,0.0,0.0,65,0.00,,,0.00,Wunderground v.1.15,2013-06-16 11:45:00,
2013-06-16 07:46:00,55.4,43.8,29.88,WSW,248,0.0,0.0,65,0.00,,,0.00,Wunderground v.1.15,2013-06-16 11:46:00,
2013-06-16 07:48:00,55.5,43.9,29.88,WSW,248,0.0,1.0,65,0.00,,,0.00,Wunderground v.1.15,2013-06-16 11:48:00,
2013-06-16 07:50:00,55.5,44.3,29.88,WSW,248,0.0,0.0,66,0.00,,,0.00,Wunderground v.1.15,2013-06-16 11:50:00,
2013-06-16 07:51:00,55.6,44.4,29.88,WSW,248,0.0,0.0,66,0.00,,,0.00,Wunderground v.1.15,2013-06-16 11:51:00,
2013-06-16 07:52:00,55.6,44.4,29.88,WSW,248,0.0,0.0,66,0.00,,,0.00,Wunderground v.1.15,2013-06-16 11:52:00,
2013-06-16 07:54:00,55.7,44.9,29.88,WSW,248,0.0,0.0,67,0.00,,,0.00,Wunderground v.1.15,2013-06-16 11:54:00,
2013-06-16 07:56:00,55.7,44.1,29.88,WSW,248,0.0,0.0,65,0.00,,,0.00,Wunderground v.1.15,2013-06-16 11:56:00,
2013-06-16 07:57:00,55.8,45.4,29.88,WSW,248,0.0,0.0,68,0.00,,,0.00,Wunderground v.1.15,2013-06-16 11:57:00,
2013-06-16 07:59:00,55.8,45.4,29.88,WSW,248,0.0,0.0,68,0.00,,,0.00,Wunderground v.1.15,2013-06-16 11:59:00,
2013-06-16 08:01:00,55.9,47.7,29.88,WSW,248,0.0,0.0,74,0.00,,,0.00,Wunderground v.1.15,2013-06-16 12:01:00,
2013-06-16 08:03:00,56.0,47.1,29.88,WSW,248,0.0,0.0,72,0.00,,,0.00,Wunderground v.1.15,2013-06-16 12:03:00,
2013-06-16 08:04:00,56.0,46.7,29.88,WSW,248,0.0,0.0,71,0.00,,,0.00,Wunderground v.1.15,2013-06-16 12:04:00,
2013-06-16 08:06:00,56.1,46.4,29.88,WSW,248,0.0,0.0,70,0.00,,,0.00,Wunderground v.1.15,2013-06-16 12:06:00,
2013-06-16 08:08:00,56.2,47.7,29.88,WSW,248,0.0,0.0,73,0.00,,,0.00,Wunderground v.1.15,2013-06-16 12:08:00,
2013-06-16 08:09:00,56.2,47.7,29.88,WSW,248,0.0,0.0,73,0.00,,,0.00,Wunderground v.1.15,2013-06-16 12:09:00,
2013-06-16 08:11:00,56.3,47.4,29.88,WSW,248,0.0,0.0,72,0.00,,,0.00,Wunderground v.1.15,2013-06-16 12:11:00,
2013-06-16 08:12:00,56.3,48.1,29.88,WSW,248,0.0,0.0,74,0.00,,,0.00,Wunderground v.1.15,2013-06-16 12:12:00,
2013-06-16 08:14:00,56.4,48.6,29.88,WSW,248,0.0,0.0,75,0.00,,,0.00,Wunderground v.1.15,2013-06-16 12:14:00,
2013-06-16 08:15:00,56.4,48.6,29.88,WSW,248,0.0,0.0,75,0.00,,,0.00,Wunderground v.1.15,2013-06-16 12:15:00,
2013-06-16 08:16:00,56.4,48.6,29.87,WSW,248,0.0,0.0,75,0.00,,,0.00,Wunderground v.1.15,2013-06-16 12:16:00,
2013-06-16 08:17:00,56.5,49.4,29.88,WSW,248,0.0,0.0,77,0.00,,,0.00,Wunderground v.1.15,2013-06-16 12:17:00,
2013-06-16 08:19:00,56.5,48.7,29.87,WSW,248,0.0,1.0,75,0.00,,,0.00,Wunderground v.1.15,2013-06-16 12:19:00,
2013-06-16 08:20:00,56.5,48.7,29.87,WSW,248,0.0,0.0,75,0.00,,,0.00,Wunderground v.1.15,2013-06-16 12:20:00,
2013-06-16 08:22:00,56.6,48.8,29.87,WSW,248,0.0,0.0,75,0.00,,,0.00,Wunderground v.1.15,2013-06-16 12:22:00,
2013-06-16 08:24:00,56.6,49.5,29.87,SSW,204,0.0,2.0,77,0.00,,,0.00,Wunderground v.1.15,2013-06-16 12:24:00,
2013-06-16 08:25:00,56.7,45.5,29.87,SSW,204,0.0,2.0,66,0.00,,,0.00,Wunderground v.1.15,2013-06-16 12:25:00,
2013-06-16 08:27:00,56.8,48.2,29.87,SSW,204,0.0,2.0,73,0.00,,,0.00,Wunderground v.1.15,2013-06-16 12:27:00,
2013-06-16 08:28:00,56.8,49.3,29.87,SSW,204,0.0,2.0,76,0.00,,,0.00,Wunderground v.1.15,2013-06-16 12:28:00,
2013-06-16 08:29:00,56.8,47.5,29.87,SSW,204,0.0,2.0,71,0.00,,,0.00,Wunderground v.1.15,2013-06-16 12:29:00,
2013-06-16 08:30:00,56.9,47.2,29.87,SSW,204,0.0,0.0,70,0.00,,,0.00,Wunderground v.1.15,2013-06-16 12:30:00,
2013-06-16 08:32:00,57.0,47.7,29.87,SSW,204,0.0,0.0,71,0.00,,,0.00,Wunderground v.1.15,2013-06-16 12:32:00,
2013-06-16 08:33:00,57.0,46.5,29.87,SSW,204,0.0,0.0,68,0.00,,,0.00,Wunderground v.1.15,2013-06-16 12:33:00,
2013-06-16 08:34:00,57.0,45.7,29.87,SSW,204,0.0,0.0,66,0.00,,,0.00,Wunderground v.1.15,2013-06-16 12:34:00,
2013-06-16 08:35:00,57.1,45.8,29.87,SSW,204,0.0,0.0,66,0.00,,,0.00,Wunderground v.1.15,2013-06-16 12:35:00,
2013-06-16 08:36:00,57.1,46.6,29.87,SSW,204,0.0,0.0,68,0.00,,,0.00,Wunderground v.1.15,2013-06-16 12:36:00,
2013-06-16 08:38:00,57.2,48.3,29.87,SSW,204,0.0,0.0,72,0.00,,,0.00,Wunderground v.1.15,2013-06-16 12:38:00,
2013-06-16 08:39:00,57.3,48.7,29.87,SSW,204,0.0,0.0,73,0.00,,,0.00,Wunderground v.1.15,2013-06-16 12:39:00,
2013-06-16 08:40:00,57.4,48.8,29.87,SSW,204,0.0,0.0,73,0.00,,,0.00,Wunderground v.1.15,2013-06-16 12:40:00,
2013-06-16 08:41:00,57.4,49.2,29.87,SSW,204,0.0,0.0,74,0.00,,,0.00,Wunderground v.1.15,2013-06-16 12:41:00,
2013-06-16 08:43:00,57.5,48.5,29.87,SSW,204,0.0,0.0,72,0.00,,,0.00,Wunderground v.1.15,2013-06-16 12:43:00,
2013-06-16 08:44:00,57.6,48.6,29.87,SSW,204,0.0,0.0,72,0.00,,,0.00,Wunderground v.1.15,2013-06-16 12:44:00,
2013-06-16 08:46:00,57.6,47.1,29.87,SSW,204,0.0,0.0,68,0.00,,,0.00,Wunderground v.1.15,2013-06-16 12:46:00,
2013-06-16 08:47:00,57.6,45.9,29.87,SSW,204,0.0,0.0,65,0.00,,,0.00,Wunderground v.1.15,2013-06-16 12:47:00,
2013-06-16 08:48:00,57.7,46.4,29.87,SSW,204,0.0,1.0,66,0.00,,,0.00,Wunderground v.1.15,2013-06-16 12:48:00,
2013-06-16 08:49:00,57.7,48.0,29.87,WSW,244,2.0,2.0,70,0.00,,,0.00,Wunderground v.1.15,2013-06-16 12:49:00,
2013-06-16 08:52:00,57.9,46.2,29.87,SSE,163,0.0,2.0,65,0.00,,,0.00,Wunderground v.1.15,2013-06-16 12:52:00,
2013-06-16 08:53:00,58.0,48.3,29.87,SSE,163,0.0,2.0,70,0.00,,,0.00,Wunderground v.1.15,2013-06-16 12:53:00,
2013-06-16 08:54:00,58.0,48.3,29.87,SSE,163,0.0,2.0,70,0.00,,,0.00,Wunderground v.1.15,2013-06-16 12:54:00,
2013-06-16 08:57:00,58.1,46.8,29.87,West,267,0.0,3.0,66,0.00,,,0.00,Wunderground v.1.15,2013-06-16 12:57:00,
2013-06-16 08:58:00,58.1,46.8,29.87,West,267,1.0,3.0,66,0.00,,,0.00,Wunderground v.1.15,2013-06-16 12:58:00,
2013-06-16 08:59:00,58.2,46.5,29.87,WNW,298,0.0,4.0,65,0.00,,,0.00,Wunderground v.1.15,2013-06-16 12:59:00,
2013-06-16 09:00:00,58.2,46.5,29.87,WNW,298,0.0,4.0,65,0.00,,,0.00,Wunderground v.1.15,2013-06-16 13:00:00,
2013-06-16 09:02:00,58.2,46.9,29.87,WNW,298,0.0,3.0,66,0.00,,,0.00,Wunderground v.1.15,2013-06-16 13:02:00,
2013-06-16 09:03:00,58.2,46.9,29.86,WNW,298,0.0,3.0,66,0.00,,,0.00,Wunderground v.1.15,2013-06-16 13:03:00,
2013-06-16 09:04:00,58.2,48.1,29.86,WNW,298,0.0,3.0,69,0.00,,,0.00,Wunderground v.1.15,2013-06-16 13:04:00,
2013-06-16 09:05:00,58.3,48.6,29.86,WNW,298,0.0,3.0,70,0.00,,,0.00,Wunderground v.1.15,2013-06-16 13:05:00,
2013-06-16 09:07:00,58.3,47.4,29.86,WNW,298,0.0,3.0,67,0.00,,,0.00,Wunderground v.1.15,2013-06-16 13:07:00,
2013-06-16 09:08:00,58.4,49.4,29.86,WNW,298,0.0,3.0,72,0.00,,,0.00,Wunderground v.1.15,2013-06-16 13:08:00,
2013-06-16 09:09:00,58.4,48.7,29.86,WNW,298,0.0,3.0,70,0.00,,,0.00,Wunderground v.1.15,2013-06-16 13:09:00,
2013-06-16 09:10:00,58.4,48.7,29.86,WNW,298,0.0,3.0,70,0.00,,,0.00,Wunderground v.1.15,2013-06-16 13:10:00,
2013-06-16 09:13:00,58.6,49.6,29.86,West,266,0.0,2.0,72,0.00,,,0.00,Wunderground v.1.15,2013-06-16 13:13:00,
2013-06-16 09:14:00,58.6,48.8,29.86,West,266,1.0,2.0,70,0.00,,,0.00,Wunderground v.1.15,2013-06-16 13:14:00,
2013-06-16 09:15:00,58.6,48.8,29.86,West,266,0.0,2.0,70,0.00,,,0.00,Wunderground v.1.15,2013-06-16 13:15:00,
2013-06-16 09:16:00,58.6,48.8,29.86,West,266,0.0,2.0,70,0.00,,,0.00,Wunderground v.1.15,2013-06-16 13:16:00,
2013-06-16 09:18:00,58.7,48.9,29.86,West,266,0.0,2.0,70,0.00,,,0.00,Wunderground v.1.15,2013-06-16 13:18:00,
2013-06-16 09:20:00,58.8,49.0,29.86,West,266,0.0,2.0,70,0.00,,,0.00,Wunderground v.1.15,2013-06-16 13:20:00,
2013-06-16 09:21:00,58.9,49.1,29.86,WSW,257,0.0,2.0,70,0.00,,,0.00,Wunderground v.1.15,2013-06-16 13:21:00,
2013-06-16 09:23:00,59.1,50.8,29.86,WSW,257,2.0,4.0,74,0.00,,,0.00,Wunderground v.1.15,2013-06-16 13:23:00,
2013-06-16 09:24:00,59.1,49.3,29.86,WSW,257,0.0,4.0,70,0.00,,,0.00,Wunderground v.1.15,2013-06-16 13:24:00,
2013-06-16 09:25:00,59.2,50.5,29.86,WSW,254,1.0,4.0,73,0.00,,,0.00,Wunderground v.1.15,2013-06-16 13:25:00,
2013-06-16 09:26:00,59.3,49.9,29.86,WSW,254,0.0,4.0,71,0.00,,,0.00,Wunderground v.1.15,2013-06-16 13:26:00,
2013-06-16 09:28:00,59.5,50.1,29.86,WSW,254,0.0,4.0,71,0.00,,,0.00,Wunderground v.1.15,2013-06-16 13:28:00,
2013-06-16 09:29:00,59.6,50.9,29.86,WSW,254,0.0,4.0,73,0.00,,,0.00,Wunderground v.1.15,2013-06-16 13:29:00,
2013-06-16 09:30:00,59.8,49.2,29.85,WSW,252,2.0,3.0,68,0.00,,,0.00,Wunderground v.1.15,2013-06-16 13:30:00,
2013-06-16 09:32:00,59.9,49.3,29.86,SSW,200,0.0,3.0,68,0.00,,,0.00,Wunderground v.1.15,2013-06-16 13:32:00,
2013-06-16 09:33:00,60.1,49.9,29.86,WSW,242,2.0,3.0,69,0.00,,,0.00,Wunderground v.1.15,2013-06-16 13:33:00,
2013-06-16 09:34:00,60.3,48.9,29.86,WSW,239,3.0,3.0,66,0.00,,,0.00,Wunderground v.1.15,2013-06-16 13:34:00,
2013-06-16 09:35:00,60.4,49.0,29.85,WSW,240,0.0,3.0,66,0.00,,,0.00,Wunderground v.1.15,2013-06-16 13:35:00,
2013-06-16 09:37:00,60.6,50.8,29.85,South,184,0.0,5.0,70,0.00,,,0.00,Wunderground v.1.15,2013-06-16 13:37:00,
2013-06-16 09:39:00,60.8,50.2,29.85,West,272,4.0,5.0,68,0.00,,,0.00,Wunderground v.1.15,2013-06-16 13:39:00,
2013-06-16 09:40:00,60.8,50.2,29.85,SSW,196,2.0,5.0,68,0.00,,,0.00,Wunderground v.1.15,2013-06-16 13:40:00,
2013-06-16 09:41:00,60.9,49.5,29.85,SW,221,0.0,2.0,66,0.00,,,0.00,Wunderground v.1.15,2013-06-16 13:41:00,
2013-06-16 09:43:00,61.1,48.8,29.85,South,186,0.0,5.0,64,0.00,,,0.00,Wunderground v.1.15,2013-06-16 13:43:00,
2013-06-16 09:45:00,61.1,49.7,29.85,SW,224,0.0,5.0,66,0.00,,,0.00,Wunderground v.1.15,2013-06-16 13:45:00,
2013-06-16 09:46:00,61.2,49.3,29.85,SW,227,0.0,5.0,65,0.00,,,0.00,Wunderground v.1.15,2013-06-16 13:46:00,
2013-06-16 09:48:00,61.2,49.7,29.85,WSW,240,4.0,5.0,66,0.00,,,0.00,Wunderground v.1.15,2013-06-16 13:48:00,
2013-06-16 09:50:00,61.2,48.9,29.85,South,188,4.0,7.0,64,0.00,,,0.00,Wunderground v.1.15,2013-06-16 13:50:00,
2013-06-16 09:51:00,61.3,49.4,29.85,WSW,257,0.0,3.0,65,0.00,,,0.00,Wunderground v.1.15,2013-06-16 13:51:00,
2013-06-16 09:54:00,61.4,50.3,29.85,SW,219,4.0,4.0,67,0.00,,,0.00,Wunderground v.1.15,2013-06-16 13:54:00,
2013-06-16 09:55:00,61.5,50.4,29.85,WNW,288,2.0,4.0,67,0.00,,,0.00,Wunderground v.1.15,2013-06-16 13:55:00,
2013-06-16 09:56:00,61.6,50.9,29.84,WNW,282,2.0,4.0,68,0.00,,,0.00,Wunderground v.1.15,2013-06-16 13:56:00,
2013-06-16 09:59:00,61.8,50.7,29.84,WSW,253,1.0,5.0,67,0.00,,,0.00,Wunderground v.1.15,2013-06-16 13:59:00,
2013-06-16 10:00:00,61.9,50.4,29.84,South,180,1.0,2.0,66,0.00,,,0.00,Wunderground v.1.15,2013-06-16 14:00:00,
2013-06-16 10:01:00,62.0,50.1,29.84,West,279,2.0,2.0,65,0.00,,,0.00,Wunderground v.1.15,2013-06-16 14:01:00,
2013-06-16 10:02:00,62.0,49.7,29.84,SW,235,3.0,3.0,64,0.00,,,0.00,Wunderground v.1.15,2013-06-16 14:02:00,
2013-06-16 10:04:00,62.0,50.9,29.84,West,266,1.0,5.0,67,0.00,,,0.00,Wunderground v.1.15,2013-06-16 14:04:00,
2013-06-16 10:05:00,62.0,50.9,29.84,WSW,249,0.0,5.0,67,0.00,,,0.00,Wunderground v.1.15,2013-06-16 14:05:00,
2013-06-16 10:06:00,62.1,51.0,29.84,NW,311,1.0,5.0,67,0.00,,,0.00,Wunderground v.1.15,2013-06-16 14:06:00,
2013-06-16 10:07:00,62.1,50.2,29.84,SSE,150,4.0,5.0,65,0.00,,,0.00,Wunderground v.1.15,2013-06-16 14:07:00,
2013-06-16 10:09:00,62.2,50.7,29.84,WSW,237,0.0,5.0,66,0.00,,,0.00,Wunderground v.1.15,2013-06-16 14:09:00,
2013-06-16 10:11:00,62.5,52.2,29.84,WSW,237,0.0,1.0,69,0.00,,,0.00,Wunderground v.1.15,2013-06-16 14:11:00,
2013-06-16 10:12:00,62.6,52.3,29.84,WSW,247,1.0,2.0,69,0.00,,,0.00,Wunderground v.1.15,2013-06-16 14:12:00,
2013-06-16 10:13:00,62.8,51.3,29.84,WSW,255,0.0,2.0,66,0.00,,,0.00,Wunderground v.1.15,2013-06-16 14:13:00,
2013-06-16 10:14:00,63.0,50.6,29.84,SSE,167,1.0,4.0,64,0.00,,,0.00,Wunderground v.1.15,2013-06-16 14:14:00,
2013-06-16 10:16:00,63.1,50.3,29.84,South,178,2.0,5.0,63,0.00,,,0.00,Wunderground v.1.15,2013-06-16 14:16:00,
2013-06-16 10:17:00,63.0,50.2,29.84,SW,224,2.0,5.0,63,0.00,,,0.00,Wunderground v.1.15,2013-06-16 14:17:00,
2013-06-16 10:18:00,63.1,51.1,29.84,South,184,5.0,6.0,65,0.00,,,0.00,Wunderground v.1.15,2013-06-16 14:18:00,
2013-06-16 10:19:00,63.1,51.6,29.84,SSW,208,1.0,6.0,66,0.00,,,0.00,Wunderground v.1.15,2013-06-16 14:19:00,
2013-06-16 10:21:00,63.2,50.4,29.83,SSW,207,1.0,3.0,63,0.00,,,0.00,Wunderground v.1.15,2013-06-16 14:21:00,
2013-06-16 10:22:00,63.2,50.8,29.83,NW,309,6.0,7.0,64,0.00,,,0.00,Wunderground v.1.15,2013-06-16 14:22:00,
2013-06-16 10:24:00,63.2,50.8,29.83,SW,217,0.0,7.0,64,0.00,,,0.00,Wunderground v.1.15,2013-06-16 14:24:00,
2013-06-16 10:26:00,63.4,52.2,29.83,WSW,258,1.0,7.0,67,0.00,,,0.00,Wunderground v.1.15,2013-06-16 14:26:00,
2013-06-16 10:27:00,63.5,53.1,29.83,SE,143,0.0,7.0,69,0.00,,,0.00,Wunderground v.1.15,2013-06-16 14:27:00,
2013-06-16 10:29:00,63.5,51.5,29.83,South,182,0.0,7.0,65,0.00,,,0.00,Wunderground v.1.15,2013-06-16 14:29:00,
2013-06-16 10:30:00,63.5,52.3,29.83,WSW,257,3.0,7.0,67,0.00,,,0.00,Wunderground v.1.15,2013-06-16 14:30:00,
2013-06-16 10:32:00,63.4,50.6,29.83,SE,134,6.0,11.0,63,0.00,,,0.00,Wunderground v.1.15,2013-06-16 14:32:00,
2013-06-16 10:34:00,63.0,52.3,29.83,West,266,0.0,11.0,68,0.00,,,0.00,Wunderground v.1.15,2013-06-16 14:34:00,
2013-06-16 10:35:00,63.0,52.3,29.83,West,266,0.0,11.0,68,0.00,,,0.00,Wunderground v.1.15,2013-06-16 14:35:00,
2013-06-16 10:37:00,62.8,51.3,29.83,West,272,2.0,11.0,66,0.00,,,0.00,Wunderground v.1.15,2013-06-16 14:37:00,
2013-06-16 10:38:00,62.7,51.2,29.83,South,186,0.0,11.0,66,0.00,,,0.00,Wunderground v.1.15,2013-06-16 14:38:00,
2013-06-16 10:39:00,62.6,51.1,29.83,ESE,112,5.0,11.0,66,0.00,,,0.00,Wunderground v.1.15,2013-06-16 14:39:00,
2013-06-16 10:40:00,62.6,51.1,29.83,East,87,1.0,2.0,66,0.00,,,0.00,Wunderground v.1.15,2013-06-16 14:40:00,
2013-06-16 10:43:00,62.6,51.9,29.83,SSE,166,0.0,4.0,68,0.00,,,0.00,Wunderground v.1.15,2013-06-16 14:43:00,
2013-06-16 10:45:00,62.6,51.1,29.83,ESE,115,1.0,4.0,66,0.00,,,0.00,Wunderground v.1.15,2013-06-16 14:45:00,
2013-06-16 10:46:00,62.6,51.5,29.83,SW,223,4.0,6.0,67,0.00,,,0.00,Wunderground v.1.15,2013-06-16 14:46:00,
2013-06-16 10:48:00,62.5,52.2,29.83,WSW,256,1.0,6.0,69,0.00,,,0.00,Wunderground v.1.15,2013-06-16 14:48:00,
2013-06-16 10:50:00,62.7,52.0,29.82,SW,232,4.0,4.0,68,0.00,,,0.00,Wunderground v.1.15,2013-06-16 14:50:00,
2013-06-16 10:51:00,62.7,52.0,29.82,SW,232,0.0,4.0,68,0.00,,,0.00,Wunderground v.1.15,2013-06-16 14:51:00,
2013-06-16 10:53:00,63.1,52.4,29.82,SSW,205,0.0,8.0,68,0.00,,,0.00,Wunderground v.1.15,2013-06-16 14:53:00,
2013-06-16 10:54:00,63.2,52.5,29.82,WSW,238,5.0,8.0,68,0.00,,,0.00,Wunderground v.1.15,2013-06-16 14:54:00,
2013-06-16 10:55:00,63.5,52.7,29.82,East,96,1.0,8.0,68,0.00,,,0.00,Wunderground v.1.15,2013-06-16 14:55:00,
2013-06-16 10:56:00,63.6,52.0,29.82,East,96,0.0,8.0,66,0.00,,,0.00,Wunderground v.1.15,2013-06-16 14:56:00,
2013-06-16 10:58:00,64.1,54.1,29.82,SSE,148,2.0,8.0,70,0.00,,,0.00,Wunderground v.1.15,2013-06-16 14:58:00,
2013-06-16 10:59:00,64.1,54.1,29.82,SSE,159,6.0,8.0,70,0.00,,,0.00,Wunderground v.1.15,2013-06-16 14:59:00,
2013-06-16 11:00:00,64.3,53.5,29.82,NW,326,4.0,6.0,68,0.00,,,0.00,Wunderground v.1.15,2013-06-16 15:00:00,
2013-06-16 11:02:00,64.4,52.8,29.82,SW,234,3.0,7.0,66,0.00,,,0.00,Wunderground v.1.15,2013-06-16 15:02:00,
2013-06-16 11:04:00,64.3,52.7,29.82,South,178,2.0,7.0,66,0.00,,,0.00,Wunderground v.1.15,2013-06-16 15:04:00,
2013-06-16 11:06:00,64.4,54.0,29.82,NNE,19,2.0,7.0,69,0.00,,,0.00,Wunderground v.1.15,2013-06-16 15:06:00,
2013-06-16 11:07:00,64.6,54.2,29.82,SSW,198,0.0,7.0,69,0.00,,,0.00,Wunderground v.1.15,2013-06-16 15:07:00,
2013-06-16 11:09:00,64.8,54.0,29.82,WNW,286,1.0,7.0,68,0.00,,,0.00,Wunderground v.1.15,2013-06-16 15:09:00,
2013-06-16 11:10:00,64.9,54.5,29.82,South,190,4.0,7.0,69,0.00,,,0.00,Wunderground v.1.15,2013-06-16 15:10:00,
2013-06-16 11:11:00,65.0,53.8,29.82,SSW,194,5.0,8.0,67,0.00,,,0.00,Wunderground v.1.15,2013-06-16 15:11:00,
2013-06-16 11:13:00,65.2,53.1,29.82,South,174,6.0,8.0,65,0.00,,,0.00,Wunderground v.1.15,2013-06-16 15:13:00,
2013-06-16 11:14:00,65.2,53.6,29.82,NNE,30,2.0,8.0,66,0.00,,,0.00,Wunderground v.1.15,2013-06-16 15:14:00,
2013-06-16 11:15:00,65.3,53.6,29.82,SSE,166,2.0,8.0,66,0.00,,,0.00,Wunderground v.1.15,2013-06-16 15:15:00,
2013-06-16 11:16:00,65.4,52.9,29.82,SW,236,5.0,8.0,64,0.00,,,0.00,Wunderground v.1.15,2013-06-16 15:16:00,
2013-06-16 11:18:00,65.4,53.7,29.82,South,187,3.0,9.0,66,0.00,,,0.00,Wunderground v.1.15,2013-06-16 15:18:00,
2013-06-16 11:20:00,65.6,54.3,29.82,SW,236,0.0,9.0,67,0.00,,,0.00,Wunderground v.1.15,2013-06-16 15:20:00,
2013-06-16 11:21:00,65.7,54.0,29.81,West,269,5.0,5.0,66,0.00,,,0.00,Wunderground v.1.15,2013-06-16 15:21:00,
2013-06-16 11:22:00,65.8,54.1,29.81,WSW,252,1.0,5.0,66,0.00,,,0.00,Wunderground v.1.15,2013-06-16 15:22:00,
2013-06-16 11:23:00,65.9,53.4,29.81,NW,304,0.0,5.0,64,0.00,,,0.00,Wunderground v.1.15,2013-06-16 15:23:00,
2013-06-16 11:25:00,66.0,53.5,29.81,SSE,155,2.0,7.0,64,0.00,,,0.00,Wunderground v.1.15,2013-06-16 15:25:00,
2013-06-16 11:26:00,66.1,54.8,29.81,SSE,168,2.0,7.0,67,0.00,,,0.00,Wunderground v.1.15,2013-06-16 15:26:00,
2013-06-16 11:27:00,66.2,53.7,29.81,SSE,167,0.0,7.0,64,0.00,,,0.00,Wunderground v.1.15,2013-06-16 15:27:00,
2013-06-16 11:28:00,66.2,53.7,29.81,SW,225,1.0,7.0,64,0.00,,,0.00,Wunderground v.1.15,2013-06-16 15:28:00,
2013-06-16 11:30:00,66.3,54.2,29.81,SSE,167,5.0,5.0,65,0.00,,,0.00,Wunderground v.1.15,2013-06-16 15:30:00,
2013-06-16 11:31:00,66.2,54.1,29.81,SSW,194,4.0,6.0,65,0.00,,,0.00,Wunderground v.1.15,2013-06-16 15:31:00,
2013-06-16 11:32:00,66.2,53.7,29.81,SSE,156,1.0,6.0,64,0.00,,,0.00,Wunderground v.1.15,2013-06-16 15:32:00,
2013-06-16 11:33:00,66.1,53.6,29.81,South,180,1.0,6.0,64,0.00,,,0.00,Wunderground v.1.15,2013-06-16 15:33:00,
2013-06-16 11:35:00,66.2,54.1,29.81,West,263,1.0,7.0,65,0.00,,,0.00,Wunderground v.1.15,2013-06-16 15:35:00,
2013-06-16 11:36:00,66.2,53.7,29.80,West,260,2.0,7.0,64,0.00,,,0.00,Wunderground v.1.15,2013-06-16 15:36:00,
2013-06-16 11:37:00,66.2,54.1,29.80,West,261,5.0,7.0,65,0.00,,,0.00,Wunderground v.1.15,2013-06-16 15:37:00,
2013-06-16 11:38:00,66.3,53.8,29.80,SW,236,6.0,7.0,64,0.00,,,0.00,Wunderground v.1.15,2013-06-16 15:38:00,
2013-06-16 11:41:00,66.6,54.0,29.80,SSE,160,0.0,5.0,64,0.00,,,0.00,Wunderground v.1.15,2013-06-16 15:41:00,
2013-06-16 11:42:00,66.8,54.7,29.80,SE,144,0.0,5.0,65,0.00,,,0.00,Wunderground v.1.15,2013-06-16 15:42:00,
2013-06-16 11:44:00,66.9,54.3,29.80,SSW,194,6.0,7.0,64,0.00,,,0.00,Wunderground v.1.15,2013-06-16 15:44:00,
2013-06-16 11:46:00,67.0,54.4,29.80,SW,221,3.0,7.0,64,0.00,,,0.00,Wunderground v.1.15,2013-06-16 15:46:00,
2013-06-16 11:48:00,67.1,56.2,29.80,South,172,0.0,7.0,68,0.00,,,0.00,Wunderground v.1.15,2013-06-16 15:48:00,
2013-06-16 11:49:00,67.2,55.9,29.80,West,267,3.0,7.0,67,0.00,,,0.00,Wunderground v.1.15,2013-06-16 15:49:00,
2013-06-16 11:51:00,67.4,56.9,29.79,NW,304,1.0,4.0,69,0.00,,,0.00,Wunderground v.1.15,2013-06-16 15:51:00,
2013-06-16 11:52:00,67.4,54.8,29.80,NW,304,0.0,4.0,64,0.00,,,0.00,Wunderground v.1.15,2013-06-16 15:52:00,
2013-06-16 11:53:00,67.5,54.9,29.80,WNW,298,6.0,6.0,64,0.00,,,0.00,Wunderground v.1.15,2013-06-16 15:53:00,
2013-06-16 11:54:00,67.5,54.9,29.79,SW,229,1.0,8.0,64,0.00,,,0.00,Wunderground v.1.15,2013-06-16 15:54:00,
2013-06-16 11:57:00,67.4,55.2,29.79,SE,136,2.0,8.0,65,0.00,,,0.00,Wunderground v.1.15,2013-06-16 15:57:00,
2013-06-16 11:58:00,67.4,54.4,29.79,SW,232,1.0,8.0,63,0.00,,,0.00,Wunderground v.1.15,2013-06-16 15:58:00,
2013-06-16 11:59:00,67.3,53.8,29.79,WSW,244,3.0,8.0,62,0.00,,,0.00,Wunderground v.1.15,2013-06-16 15:59:00,
2013-06-16 12:02:00,67.3,56.4,29.79,SSW,205,0.0,7.0,68,0.00,,,0.00,Wunderground v.1.15,2013-06-16 16:02:00,
2013-06-16 12:03:00,67.3,54.7,29.79,SSW,197,1.0,7.0,64,0.00,,,0.00,Wunderground v.1.15,2013-06-16 16:03:00,
2013-06-16 12:04:00,67.3,54.7,29.79,SSW,194,2.0,7.0,64,0.00,,,0.00,Wunderground v.1.15,2013-06-16 16:04:00,
2013-06-16 12:08:00,67.1,55.4,29.79,SSE,148,4.0,7.0,66,0.00,,,0.00,Wunderground v.1.15,2013-06-16 16:08:00,
2013-06-16 12:09:00,67.1,54.9,29.79,South,170,6.0,7.0,65,0.00,,,0.00,Wunderground v.1.15,2013-06-16 16:09:00,
2013-06-16 12:10:00,67.0,54.4,29.79,WNW,290,0.0,7.0,64,0.00,,,0.00,Wunderground v.1.15,2013-06-16 16:10:00,
2013-06-16 12:13:00,66.8,55.5,29.78,South,180,1.0,5.0,67,0.00,,,0.00,Wunderground v.1.15,2013-06-16 16:13:00,
2013-06-16 12:14:00,66.8,55.1,29.78,South,173,2.0,5.0,66,0.00,,,0.00,Wunderground v.1.15,2013-06-16 16:14:00,
2013-06-16 12:15:00,66.8,54.7,29.78,NE,38,1.0,6.0,65,0.00,,,0.00,Wunderground v.1.15,2013-06-16 16:15:00,
2013-06-16 12:19:00,66.8,55.1,29.78,SW,218,5.0,7.0,66,0.00,,,0.00,Wunderground v.1.15,2013-06-16 16:19:00,
2013-06-16 12:20:00,66.8,54.7,29.78,SSE,163,4.0,7.0,65,0.00,,,0.00,Wunderground v.1.15,2013-06-16 16:20:00,
2013-06-16 12:24:00,66.7,55.8,29.78,SSE,158,6.0,6.0,68,0.00,,,0.00,Wunderground v.1.15,2013-06-16 16:24:00,
2013-06-16 12:25:00,66.7,54.6,29.78,SSE,165,0.0,6.0,65,0.00,,,0.00,Wunderground v.1.15,2013-06-16 16:25:00,
2013-06-16 12:26:00,66.8,55.1,29.78,SE,129,1.0,6.0,66,0.00,,,0.00,Wunderground v.1.15,2013-06-16 16:26:00,
2013-06-16 12:29:00,66.7,55.4,29.78,South,189,1.0,6.0,67,0.00,,,0.00,Wunderground v.1.15,2013-06-16 16:29:00,
2013-06-16 12:30:00,66.6,55.3,29.78,South,184,0.0,6.0,67,0.00,,,0.00,Wunderground v.1.15,2013-06-16 16:30:00,
2013-06-16 12:31:00,66.6,56.5,29.78,South,169,0.0,2.0,70,0.00,,,0.00,Wunderground v.1.15,2013-06-16 16:31:00,
2013-06-16 12:32:00,66.6,55.3,29.78,SE,141,0.0,4.0,67,0.00,,,0.00,Wunderground v.1.15,2013-06-16 16:32:00,
2013-06-16 12:34:00,66.5,54.8,29.78,SSE,150,0.0,5.0,66,0.00,,,0.00,Wunderground v.1.15,2013-06-16 16:34:00,
2013-06-16 12:35:00,66.5,54.8,29.78,SSW,196,1.0,5.0,66,0.00,,,0.00,Wunderground v.1.15,2013-06-16 16:35:00,
2013-06-16 12:36:00,66.5,55.6,29.78,South,180,1.0,5.0,68,0.00,,,0.00,Wunderground v.1.15,2013-06-16 16:36:00,
2013-06-16 12:37:00,66.4,55.5,29.78,West,277,6.0,6.0,68,0.00,,,0.00,Wunderground v.1.15,2013-06-16 16:37:00,
2013-06-16 12:40:00,66.3,54.2,29.77,SW,218,4.0,7.0,65,0.00,,,0.00,Wunderground v.1.15,2013-06-16 16:40:00,
2013-06-16 12:41:00,66.3,54.6,29.77,SSW,211,2.0,4.0,66,0.00,,,0.00,Wunderground v.1.15,2013-06-16 16:41:00,
2013-06-16 12:42:00,66.3,54.2,29.77,South,182,0.0,5.0,65,0.00,,,0.00,Wunderground v.1.15,2013-06-16 16:42:00,
2013-06-16 12:45:00,66.4,54.3,29.77,South,191,1.0,10.0,65,0.00,,,0.00,Wunderground v.1.15,2013-06-16 16:45:00,
2013-06-16 12:46:00,66.4,54.7,29.77,NW,318,5.0,10.0,66,0.00,,,0.00,Wunderground v.1.15,2013-06-16 16:46:00,
2013-06-16 12:47:00,66.5,55.2,29.77,WSW,248,2.0,10.0,67,0.00,,,0.00,Wunderground v.1.15,2013-06-16 16:47:00,
2013-06-16 12:50:00,66.5,54.8,29.77,SW,220,2.0,10.0,66,0.00,,,0.00,Wunderground v.1.15,2013-06-16 16:50:00,
2013-06-16 12:51:00,66.5,55.2,29.77,SSE,168,1.0,2.0,67,0.00,,,0.00,Wunderground v.1.15,2013-06-16 16:51:00,
2013-06-16 12:53:00,66.5,55.6,29.77,WSW,245,3.0,8.0,68,0.00,,,0.00,Wunderground v.1.15,2013-06-16 16:53:00,
2013-06-16 12:55:00,66.5,56.0,29.77,South,178,0.0,8.0,69,0.00,,,0.00,Wunderground v.1.15,2013-06-16 16:55:00,
2013-06-16 12:56:00,66.5,56.0,29.77,WSW,250,5.0,8.0,69,0.00,,,0.00,Wunderground v.1.15,2013-06-16 16:56:00,
2013-06-16 12:59:00,66.4,55.5,29.76,West,276,0.0,8.0,68,0.00,,,0.00,Wunderground v.1.15,2013-06-16 16:59:00,
2013-06-16 13:00:00,66.5,55.2,29.76,SSW,194,0.0,5.0,67,0.00,,,0.00,Wunderground v.1.15,2013-06-16 17:00:00,
2013-06-16 13:01:00,66.5,55.6,29.76,SSW,194,0.0,5.0,68,0.00,,,0.00,Wunderground v.1.15,2013-06-16 17:01:00,
2013-06-16 13:04:00,66.5,57.2,29.76,SSW,202,0.0,5.0,72,0.00,,,0.00,Wunderground v.1.15,2013-06-16 17:04:00,
2013-06-16 13:05:00,66.6,56.9,29.76,South,184,1.0,5.0,71,0.00,,,0.00,Wunderground v.1.15,2013-06-16 17:05:00,
2013-06-16 13:06:00,66.6,56.9,29.76,South,185,0.0,5.0,71,0.00,,,0.00,Wunderground v.1.15,2013-06-16 17:06:00,
2013-06-16 13:07:00,66.6,57.3,29.76,ESE,123,1.0,5.0,72,0.00,,,0.00,Wunderground v.1.15,2013-06-16 17:07:00,
2013-06-16 13:09:00,66.6,55.3,29.76,WNW,288,0.0,5.0,67,0.00,,,0.00,Wunderground v.1.15,2013-06-16 17:09:00,
2013-06-16 13:10:00,66.6,57.3,29.76,West,263,0.0,2.0,72,0.00,,,0.00,Wunderground v.1.15,2013-06-16 17:10:00,
2013-06-16 13:11:00,66.6,55.7,29.76,South,171,2.0,2.0,68,0.00,,,0.00,Wunderground v.1.15,2013-06-16 17:11:00,
2013-06-16 13:12:00,66.6,55.7,29.76,SE,143,1.0,6.0,68,0.00,,,0.00,Wunderground v.1.15,2013-06-16 17:12:00,
2013-06-16 13:14:00,66.6,55.3,29.76,SSW,194,0.0,6.0,67,0.00,,,0.00,Wunderground v.1.15,2013-06-16 17:14:00,
2013-06-16 13:15:00,66.6,54.9,29.76,SW,219,2.0,7.0,66,0.00,,,0.00,Wunderground v.1.15,2013-06-16 17:15:00,
2013-06-16 13:16:00,66.6,54.9,29.76,SW,230,3.0,7.0,66,0.00,,,0.00,Wunderground v.1.15,2013-06-16 17:16:00,
2013-06-16 13:18:00,66.5,55.2,29.75,South,175,4.0,7.0,67,0.00,,,0.00,Wunderground v.1.15,2013-06-16 17:18:00,
2013-06-16 13:19:00,66.5,54.8,29.75,South,174,0.0,7.0,66,0.00,,,0.00,Wunderground v.1.15,2013-06-16 17:19:00,
2013-06-16 13:21:00,66.5,54.8,29.75,South,174,0.0,2.0,66,0.00,,,0.00,Wunderground v.1.15,2013-06-16 17:21:00,
2013-06-16 13:22:00,66.6,57.3,29.75,SW,222,0.0,3.0,72,0.00,,,0.00,Wunderground v.1.15,2013-06-16 17:22:00,
2013-06-16 13:23:00,66.5,55.6,29.75,SW,226,1.0,3.0,68,0.00,,,0.00,Wunderground v.1.15,2013-06-16 17:23:00,
2013-06-16 13:25:00,66.5,56.4,29.75,West,259,0.0,6.0,70,0.00,,,0.00,Wunderground v.1.15,2013-06-16 17:25:00,
2013-06-16 13:26:00,66.5,56.4,29.75,SSE,149,2.0,6.0,70,0.00,,,0.00,Wunderground v.1.15,2013-06-16 17:26:00,
2013-06-16 13:27:00,66.5,55.2,29.75,South,179,1.0,6.0,67,0.00,,,0.00,Wunderground v.1.15,2013-06-16 17:27:00,
2013-06-16 13:28:00,66.5,55.6,29.75,South,187,0.0,6.0,68,0.00,,,0.00,Wunderground v.1.15,2013-06-16 17:28:00,
2013-06-16 13:29:00,66.5,55.2,29.75,South,186,0.0,6.0,67,0.00,,,0.00,Wunderground v.1.15,2013-06-16 17:29:00,
2013-06-16 13:30:00,66.6,57.7,29.75,SSW,200,0.0,1.0,73,0.00,,,0.00,Wunderground v.1.15,2013-06-16 17:30:00,
2013-06-16 13:32:00,66.6,56.5,29.74,SSE,157,4.0,6.0,70,0.00,,,0.00,Wunderground v.1.15,2013-06-16 17:32:00,
2013-06-16 13:33:00,66.6,56.5,29.74,SSW,205,0.0,6.0,70,0.00,,,0.00,Wunderground v.1.15,2013-06-16 17:33:00,
2013-06-16 13:34:00,66.6,56.5,29.74,SSW,205,0.0,6.0,70,0.00,,,0.00,Wunderground v.1.15,2013-06-16 17:34:00,
2013-06-16 13:35:00,66.7,56.6,29.74,NW,304,0.0,6.0,70,0.00,,,0.00,Wunderground v.1.15,2013-06-16 17:35:00,
2013-06-16 13:38:00,66.7,55.0,29.74,WSW,247,3.0,6.0,66,0.00,,,0.00,Wunderground v.1.15,2013-06-16 17:38:00,
2013-06-16 13:39:00,66.7,55.4,29.74,WSW,249,0.0,6.0,67,0.00,,,0.00,Wunderground v.1.15,2013-06-16 17:39:00,
2013-06-16 13:41:00,66.7,55.4,29.74,SSW,209,0.0,5.0,67,0.00,,,0.00,Wunderground v.1.15,2013-06-16 17:41:00,
2013-06-16 13:43:00,66.7,54.6,29.74,SW,215,0.0,9.0,65,0.00,,,0.00,Wunderground v.1.15,2013-06-16 17:43:00,
2013-06-16 13:44:00,66.7,54.6,29.74,WSW,248,0.0,9.0,65,0.00,,,0.00,Wunderground v.1.15,2013-06-16 17:44:00,
2013-06-16 13:45:00,66.7,55.4,29.74,WSW,242,2.0,9.0,67,0.00,,,0.00,Wunderground v.1.15,2013-06-16 17:45:00,
2013-06-16 13:47:00,66.7,55.4,29.73,SW,214,6.0,9.0,67,0.00,,,0.00,Wunderground v.1.15,2013-06-16 17:47:00,
2013-06-16 13:49:00,66.7,55.4,29.73,East,90,0.0,9.0,67,0.00,,,0.00,Wunderground v.1.15,2013-06-16 17:49:00,
2013-06-16 13:51:00,66.8,55.5,29.73,SSE,152,4.0,4.0,67,0.00,,,0.00,Wunderground v.1.15,2013-06-16 17:51:00,
2013-06-16 13:52:00,66.8,54.2,29.73,SW,214,0.0,6.0,64,0.00,,,0.00,Wunderground v.1.15,2013-06-16 17:52:00,
2013-06-16 13:54:00,66.8,55.5,29.73,West,262,0.0,6.0,67,0.00,,,0.00,Wunderground v.1.15,2013-06-16 17:54:00,
2013-06-16 13:55:00,66.9,55.2,29.73,South,189,1.0,6.0,66,0.00,,,0.00,Wunderground v.1.15,2013-06-16 17:55:00,
2013-06-16 13:57:00,66.9,56.0,29.73,South,189,2.0,6.0,68,0.00,,,0.00,Wunderground v.1.15,2013-06-16 17:57:00,
2013-06-16 13:59:00,66.8,55.1,29.73,SSE,163,0.0,6.0,66,0.00,,,0.00,Wunderground v.1.15,2013-06-16 17:59:00,
2013-06-16 14:00:00,66.8,55.9,29.73,WSW,254,4.0,6.0,68,0.00,,,0.00,Wunderground v.1.15,2013-06-16 18:00:00,
2013-06-16 14:02:00,66.7,54.6,29.73,SSE,163,7.0,7.0,65,0.00,,,0.00,Wunderground v.1.15,2013-06-16 18:02:00,
2013-06-16 14:04:00,66.5,55.2,29.72,South,179,0.0,7.0,67,0.00,,,0.00,Wunderground v.1.15,2013-06-16 18:04:00,
2013-06-16 14:05:00,66.5,55.2,29.72,SSE,165,0.0,7.0,67,0.00,,,0.00,Wunderground v.1.15,2013-06-16 18:05:00,
2013-06-16 14:07:00,66.4,55.9,29.72,East,80,1.0,7.0,69,0.00,,,0.00,Wunderground v.1.15,2013-06-16 18:07:00,
2013-06-16 14:08:00,66.4,55.9,29.72,ENE,78,1.0,7.0,69,0.00,,,0.00,Wunderground v.1.15,2013-06-16 18:08:00,
2013-06-16 14:09:00,66.3,55.4,29.72,South,186,1.0,7.0,68,0.00,,,0.00,Wunderground v.1.15,2013-06-16 18:09:00,
2013-06-16 14:10:00,66.2,55.3,29.72,SE,137,9.0,12.0,68,0.00,,,0.00,Wunderground v.1.15,2013-06-16 18:10:00,
2013-06-16 14:13:00,66.0,54.7,29.72,South,175,0.0,12.0,67,0.00,,,0.00,Wunderground v.1.15,2013-06-16 18:13:00,
2013-06-16 14:15:00,66.0,54.7,29.72,ESE,110,0.0,12.0,67,0.00,,,0.00,Wunderground v.1.15,2013-06-16 18:15:00,
2013-06-16 14:16:00,65.9,54.6,29.72,ESE,123,1.0,12.0,67,0.00,,,0.00,Wunderground v.1.15,2013-06-16 18:16:00,
2013-06-16 14:18:00,65.8,54.9,29.72,SE,132,5.0,12.0,68,0.00,,,0.00,Wunderground v.1.15,2013-06-16 18:18:00,
2013-06-16 14:19:00,65.8,54.9,29.72,SW,215,2.0,12.0,68,0.00,,,0.00,Wunderground v.1.15,2013-06-16 18:19:00,
2013-06-16 14:21:00,65.7,54.8,29.72,South,175,1.0,4.0,68,0.00,,,0.00,Wunderground v.1.15,2013-06-16 18:21:00,
2013-06-16 14:22:00,65.6,54.3,29.71,SE,143,0.0,6.0,67,0.00,,,0.00,Wunderground v.1.15,2013-06-16 18:22:00,
2013-06-16 14:23:00,65.5,54.7,29.71,South,171,0.0,7.0,68,0.00,,,0.00,Wunderground v.1.15,2013-06-16 18:23:00,
2013-06-16 14:26:00,65.4,54.2,29.71,SE,135,2.0,9.0,67,0.00,,,0.00,Wunderground v.1.15,2013-06-16 18:26:00,
2013-06-16 14:27:00,65.4,54.6,29.71,SSE,159,0.0,9.0,68,0.00,,,0.00,Wunderground v.1.15,2013-06-16 18:27:00,
2013-06-16 14:28:00,65.3,54.5,29.71,SSW,209,4.0,9.0,68,0.00,,,0.00,Wunderground v.1.15,2013-06-16 18:28:00,
2013-06-16 14:31:00,65.2,55.2,29.71,West,262,8.0,8.0,70,0.00,,,0.00,Wunderground v.1.15,2013-06-16 18:31:00,
2013-06-16 14:32:00,65.2,54.8,29.71,WSW,250,4.0,8.0,69,0.00,,,0.00,Wunderground v.1.15,2013-06-16 18:32:00,
2013-06-16 14:33:00,65.1,55.1,29.71,NNW,342,0.0,8.0,70,0.00,,,0.00,Wunderground v.1.15,2013-06-16 18:33:00,
2013-06-16 14:36:00,65.0,54.6,29.71,ESE,122,6.0,8.0,69,0.00,,,0.00,Wunderground v.1.15,2013-06-16 18:36:00,
2013-06-16 14:37:00,65.0,55.0,29.71,South,190,2.0,8.0,70,0.00,,,0.00,Wunderground v.1.15,2013-06-16 18:37:00,
2013-06-16 14:38:00,65.0,54.2,29.71,SW,225,0.0,9.0,68,0.00,,,0.00,Wunderground v.1.15,2013-06-16 18:38:00,
2013-06-16 14:39:00,65.0,54.2,29.70,SE,136,2.0,9.0,68,0.00,,,0.00,Wunderground v.1.15,2013-06-16 18:39:00,
2013-06-16 14:42:00,65.0,53.8,29.70,SE,146,5.0,8.0,67,0.00,,,0.00,Wunderground v.1.15,2013-06-16 18:42:00,
2013-06-16 14:43:00,65.0,54.2,29.70,SSE,153,0.0,8.0,68,0.00,,,0.00,Wunderground v.1.15,2013-06-16 18:43:00,
2013-06-16 14:44:00,65.0,53.8,29.70,South,183,3.0,8.0,67,0.00,,,0.00,Wunderground v.1.15,2013-06-16 18:44:00,
2013-06-16 14:47:00,65.0,53.8,29.70,WSW,237,0.0,8.0,67,0.00,,,0.00,Wunderground v.1.15,2013-06-16 18:47:00,
2013-06-16 14:48:00,65.0,54.2,29.70,WSW,237,0.0,8.0,68,0.00,,,0.00,Wunderground v.1.15,2013-06-16 18:48:00,
2013-06-16 14:49:00,65.0,54.6,29.70,SSE,167,4.0,8.0,69,0.00,,,0.00,Wunderground v.1.15,2013-06-16 18:49:00,
2013-06-16 14:52:00,64.9,54.1,29.70,SE,131,0.0,5.0,68,0.00,,,0.00,Wunderground v.1.15,2013-06-16 18:52:00,
2013-06-16 14:54:00,64.9,54.5,29.70,NE,56,0.0,5.0,69,0.00,,,0.00,Wunderground v.1.15,2013-06-16 18:54:00,
2013-06-16 14:55:00,64.8,53.6,29.70,SSE,167,6.0,10.0,67,0.00,,,0.00,Wunderground v.1.15,2013-06-16 18:55:00,
2013-06-16 14:57:00,64.7,53.1,29.70,South,186,0.0,10.0,66,0.00,,,0.00,Wunderground v.1.15,2013-06-16 18:57:00,
2013-06-16 14:58:00,64.6,53.8,29.70,SSW,209,4.0,10.0,68,0.00,,,0.00,Wunderground v.1.15,2013-06-16 18:58:00,
2013-06-16 14:59:00,64.6,53.4,29.70,SSE,168,4.0,10.0,67,0.00,,,0.00,Wunderground v.1.15,2013-06-16 18:59:00,
2013-06-16 15:00:00,64.5,52.9,29.70,South,182,0.0,3.0,66,0.00,,,0.00,Wunderground v.1.15,2013-06-16 19:00:00,
2013-06-16 15:02:00,64.5,53.3,29.70,East,86,4.0,4.0,67,0.00,,,0.00,Wunderground v.1.15,2013-06-16 19:02:00,
2013-06-16 15:03:00,64.4,53.2,29.70,ESE,113,5.0,7.0,67,0.00,,,0.00,Wunderground v.1.15,2013-06-16 19:03:00,
2013-06-16 15:04:00,64.3,53.1,29.70,SE,135,5.0,7.0,67,0.00,,,0.00,Wunderground v.1.15,2013-06-16 19:04:00,
2013-06-16 15:06:00,64.3,52.7,29.69,SSW,198,0.0,10.0,66,0.00,,,0.00,Wunderground v.1.15,2013-06-16 19:06:00,
2013-06-16 15:08:00,64.3,52.7,29.69,SSE,147,0.0,10.0,66,0.00,,,0.00,Wunderground v.1.15,2013-06-16 19:08:00,
2013-06-16 15:09:00,64.3,52.7,29.69,ESE,107,1.0,10.0,66,0.00,,,0.00,Wunderground v.1.15,2013-06-16 19:09:00,
2013-06-16 15:12:00,64.2,52.2,29.69,West,273,4.0,8.0,65,0.00,,,0.00,Wunderground v.1.15,2013-06-16 19:12:00,
2013-06-16 15:13:00,64.2,52.6,29.69,NW,314,2.0,8.0,66,0.00,,,0.00,Wunderground v.1.15,2013-06-16 19:13:00,
2013-06-16 15:14:00,64.2,52.6,29.69,SW,229,3.0,8.0,66,0.00,,,0.00,Wunderground v.1.15,2013-06-16 19:14:00,
2013-06-16 15:15:00,64.2,52.6,29.69,South,184,2.0,8.0,66,0.00,,,0.00,Wunderground v.1.15,2013-06-16 19:15:00,
2013-06-16 15:17:00,64.2,52.2,29.69,SE,146,8.0,9.0,65,0.00,,,0.00,Wunderground v.1.15,2013-06-16 19:17:00,
2013-06-16 15:18:00,64.2,52.2,29.69,SSW,207,0.0,12.0,65,0.00,,,0.00,Wunderground v.1.15,2013-06-16 19:18:00,
2013-06-16 15:19:00,64.2,52.2,29.69,South,190,0.0,12.0,65,0.00,,,0.00,Wunderground v.1.15,2013-06-16 19:19:00,
2013-06-16 15:20:00,64.2,52.6,29.69,SW,229,0.0,7.0,66,0.00,,,0.00,Wunderground v.1.15,2013-06-16 19:20:00,
2013-06-16 15:22:00,64.2,52.6,29.69,West,275,0.0,7.0,66,0.00,,,0.00,Wunderground v.1.15,2013-06-16 19:22:00,
2013-06-16 15:23:00,64.1,52.9,29.70,SW,223,0.0,7.0,67,0.00,,,0.00,Wunderground v.1.15,2013-06-16 19:23:00,
2013-06-16 15:24:00,64.1,52.9,29.70,North,355,0.0,7.0,67,0.00,,,0.00,Wunderground v.1.15,2013-06-16 19:24:00,
2013-06-16 15:25:00,64.1,53.3,29.70,West,270,0.0,7.0,68,0.00,,,0.00,Wunderground v.1.15,2013-06-16 19:25:00,
2013-06-16 15:26:00,64.0,52.8,29.71,SSE,153,8.0,8.0,67,0.00,,,0.00,Wunderground v.1.15,2013-06-16 19:26:00,
2013-06-16 15:27:00,63.9,52.3,29.70,SE,126,7.0,11.0,66,0.00,,,0.00,Wunderground v.1.15,2013-06-16 19:27:00,
2013-06-16 15:28:00,63.9,52.3,29.71,SSE,166,14.0,14.0,66,0.00,,,0.00,Wunderground v.1.15,2013-06-16 19:28:00,
2013-06-16 15:29:00,63.9,52.3,29.71,SSW,196,1.0,14.0,66,0.00,,,0.00,Wunderground v.1.15,2013-06-16 19:29:00,
2013-06-16 15:30:00,64.0,52.4,29.71,SW,228,9.0,14.0,66,0.00,,,0.00,Wunderground v.1.15,2013-06-16 19:30:00,
2013-06-16 15:31:00,63.9,53.1,29.71,West,263,0.0,10.0,68,0.00,,,0.00,Wunderground v.1.15,2013-06-16 19:31:00,
2013-06-16 15:32:00,63.9,52.3,29.71,WNW,302,2.0,10.0,66,0.00,,,0.00,Wunderground v.1.15,2013-06-16 19:32:00,
2013-06-16 15:34:00,63.8,52.6,29.71,WNW,300,2.0,10.0,67,0.00,,,0.00,Wunderground v.1.15,2013-06-16 19:34:00,
2013-06-16 15:35:00,63.7,52.9,29.71,South,174,1.0,10.0,68,0.00,,,0.00,Wunderground v.1.15,2013-06-16 19:35:00,
2013-06-16 15:36:00,63.6,52.8,29.71,SSE,162,0.0,10.0,68,0.00,,,0.00,Wunderground v.1.15,2013-06-16 19:36:00,
2013-06-16 15:37:00,63.5,53.1,29.72,WNW,288,1.0,12.0,69,0.00,,,0.00,Wunderground v.1.15,2013-06-16 19:37:00,
2013-06-16 15:39:00,63.3,53.7,29.71,South,186,9.0,12.0,71,0.00,,,0.00,Wunderground v.1.15,2013-06-16 19:39:00,
2013-06-16 15:40:00,63.1,53.5,29.71,SW,215,15.0,15.0,71,0.00,,,0.00,Wunderground v.1.15,2013-06-16 19:40:00,
2013-06-16 15:41:00,62.8,53.6,29.71,SW,234,7.0,15.0,72,0.00,,,0.00,Wunderground v.1.15,2013-06-16 19:41:00,
2013-06-16 15:42:00,62.5,54.1,29.71,WSW,250,6.0,15.0,74,0.00,,,0.00,Wunderground v.1.15,2013-06-16 19:42:00,
2013-06-16 15:44:00,61.9,54.6,29.71,SE,140,6.0,15.0,77,0.00,,,0.00,Wunderground v.1.15,2013-06-16 19:44:00,
2013-06-16 15:45:00,61.8,54.5,29.71,South,185,0.0,15.0,77,0.00,,,0.00,Wunderground v.1.15,2013-06-16 19:45:00,
2013-06-16 15:46:00,61.2,54.3,29.71,SW,234,9.0,15.0,78,0.00,,,0.00,Wunderground v.1.15,2013-06-16 19:46:00,
2013-06-16 15:47:00,60.8,54.2,29.71,WSW,238,7.0,15.0,79,0.00,,,0.00,Wunderground v.1.15,2013-06-16 19:47:00,
2013-06-16 15:50:00,60.3,54.8,29.71,SW,215,3.0,15.0,82,0.00,,,0.01,Wunderground v.1.15,2013-06-16 19:50:00,
2013-06-16 15:51:00,59.9,54.7,29.71,West,269,1.0,7.0,83,0.00,,,0.01,Wunderground v.1.15,2013-06-16 19:51:00,
2013-06-16 15:53:00,59.5,54.3,29.71,South,179,2.0,7.0,83,0.00,,,0.01,Wunderground v.1.15,2013-06-16 19:53:00,
2013-06-16 15:55:00,59.1,54.6,29.71,SW,222,2.0,8.0,85,0.00,,,0.01,Wunderground v.1.15,2013-06-16 19:55:00,
2013-06-16 15:57:00,58.9,54.7,29.70,West,259,2.0,8.0,86,0.00,,,0.01,Wunderground v.1.15,2013-06-16 19:57:00,
2013-06-16 15:58:00,58.6,54.7,29.71,SSW,206,0.0,8.0,87,0.00,,,0.01,Wunderground v.1.15,2013-06-16 19:58:00,
2013-06-16 16:00:00,58.4,54.5,29.70,SW,223,2.0,3.0,87,0.00,,,0.01,Wunderground v.1.15,2013-06-16 20:00:00,
2013-06-16 16:01:00,58.4,54.5,29.70,SSE,167,1.0,5.0,87,0.00,,,0.01,Wunderground v.1.15,2013-06-16 20:01:00,
2013-06-16 16:02:00,58.2,54.3,29.70,South,178,0.0,6.0,87,0.00,,,0.01,Wunderground v.1.15,2013-06-16 20:02:00,
2013-06-16 16:03:00,58.2,54.7,29.70,South,178,0.0,6.0,88,0.00,,,0.01,Wunderground v.1.15,2013-06-16 20:03:00,
2013-06-16 16:05:00,58.1,54.6,29.71,SSW,203,0.0,6.0,88,0.00,,,0.01,Wunderground v.1.15,2013-06-16 20:05:00,
2013-06-16 16:06:00,58.1,54.6,29.70,SSW,203,0.0,6.0,88,0.00,,,0.01,Wunderground v.1.15,2013-06-16 20:06:00,
2013-06-16 16:07:00,58.1,54.6,29.71,SSW,207,0.0,6.0,88,0.00,,,0.01,Wunderground v.1.15,2013-06-16 20:07:00,
2013-06-16 16:09:00,58.0,54.5,29.70,SE,135,0.0,6.0,88,0.00,,,0.01,Wunderground v.1.15,2013-06-16 20:09:00,
2013-06-16 16:10:00,58.0,54.8,29.70,SSW,196,0.0,1.0,89,0.00,,,0.01,Wunderground v.1.15,2013-06-16 20:10:00,
2013-06-16 16:11:00,58.0,54.5,29.70,South,184,0.0,2.0,88,0.00,,,0.01,Wunderground v.1.15,2013-06-16 20:11:00,
2013-06-16 16:12:00,57.9,54.4,29.70,SSW,200,0.0,4.0,88,0.00,,,0.01,Wunderground v.1.15,2013-06-16 20:12:00,
2013-06-16 16:14:00,57.9,54.4,29.70,SE,146,0.0,6.0,88,0.00,,,0.01,Wunderground v.1.15,2013-06-16 20:14:00,
2013-06-16 16:16:00,57.9,54.1,29.70,SSW,196,1.0,6.0,87,0.00,,,0.01,Wunderground v.1.15,2013-06-16 20:16:00,
2013-06-16 16:17:00,58.0,54.2,29.70,WSW,247,1.0,6.0,87,0.00,,,0.01,Wunderground v.1.15,2013-06-16 20:17:00,
2013-06-16 16:20:00,58.1,54.6,29.70,South,171,0.0,6.0,88,0.00,,,0.01,Wunderground v.1.15,2013-06-16 20:20:00,
2013-06-16 16:21:00,58.1,54.6,29.70,South,171,0.0,1.0,88,0.00,,,0.01,Wunderground v.1.15,2013-06-16 20:21:00,
2013-06-16 16:22:00,58.1,54.6,29.70,SSW,208,0.0,2.0,88,0.00,,,0.01,Wunderground v.1.15,2013-06-16 20:22:00,
2013-06-16 16:23:00,58.1,54.6,29.70,SSW,208,0.0,2.0,88,0.00,,,0.01,Wunderground v.1.15,2013-06-16 20:23:00,
2013-06-16 16:25:00,58.1,54.2,29.70,SSW,208,0.0,2.0,87,0.00,,,0.01,Wunderground v.1.15,2013-06-16 20:25:00,
2013-06-16 16:26:00,58.1,54.2,29.70,SSW,208,0.0,2.0,87,0.00,,,0.01,Wunderground v.1.15,2013-06-16 20:26:00,
2013-06-16 16:27:00,58.1,54.9,29.70,SSW,208,0.0,2.0,89,0.00,,,0.01,Wunderground v.1.15,2013-06-16 20:27:00,
2013-06-16 16:28:00,58.1,54.9,29.69,SSW,208,0.0,2.0,89,0.00,,,0.01,Wunderground v.1.15,2013-06-16 20:28:00,
2013-06-16 16:30:00,58.1,54.6,29.70,SSW,208,0.0,2.0,88,0.00,,,0.01,Wunderground v.1.15,2013-06-16 20:30:00,
2013-06-16 16:32:00,58.1,54.6,29.69,SSE,167,1.0,5.0,88,0.00,,,0.01,Wunderground v.1.15,2013-06-16 20:32:00,
2013-06-16 16:33:00,58.0,54.5,29.69,SSE,167,0.0,5.0,88,0.00,,,0.01,Wunderground v.1.15,2013-06-16 20:33:00,
2013-06-16 16:35:00,58.1,54.6,29.69,SSE,167,0.0,5.0,88,0.00,,,0.01,Wunderground v.1.15,2013-06-16 20:35:00,
2013-06-16 16:37:00,58.1,54.6,29.69,SSE,167,0.0,5.0,88,0.00,,,0.01,Wunderground v.1.15,2013-06-16 20:37:00,
2013-06-16 16:38:00,58.1,54.9,29.70,South,169,4.0,7.0,89,0.00,,,0.01,Wunderground v.1.15,2013-06-16 20:38:00,
2013-06-16 16:40:00,58.2,55.0,29.69,SSW,192,0.0,1.0,89,0.00,,,0.01,Wunderground v.1.15,2013-06-16 20:40:00,
2013-06-16 16:42:00,58.2,55.0,29.69,WNW,290,2.0,5.0,89,0.00,,,0.01,Wunderground v.1.15,2013-06-16 20:42:00,
2013-06-16 16:43:00,58.2,55.0,29.69,South,177,0.0,5.0,89,0.00,,,0.01,Wunderground v.1.15,2013-06-16 20:43:00,
2013-06-16 16:45:00,58.2,55.0,29.69,SSW,206,9.0,9.0,89,0.00,,,0.01,Wunderground v.1.15,2013-06-16 20:45:00,
2013-06-16 16:47:00,58.2,55.0,29.69,South,184,4.0,9.0,89,0.00,,,0.01,Wunderground v.1.15,2013-06-16 20:47:00,
2013-06-16 16:48:00,58.2,55.0,29.69,SSE,165,0.0,9.0,89,0.00,,,0.01,Wunderground v.1.15,2013-06-16 20:48:00,
2013-06-16 16:49:00,58.3,54.8,29.69,WSW,247,4.0,9.0,88,0.00,,,0.01,Wunderground v.1.15,2013-06-16 20:49:00,
2013-06-16 16:51:00,58.4,54.5,29.69,South,180,0.0,8.0,87,0.00,,,0.01,Wunderground v.1.15,2013-06-16 20:51:00,
2013-06-16 16:52:00,58.5,55.0,29.69,West,269,0.0,8.0,88,0.00,,,0.01,Wunderground v.1.15,2013-06-16 20:52:00,
2013-06-16 16:53:00,58.5,55.0,29.69,SSW,194,0.0,8.0,88,0.00,,,0.01,Wunderground v.1.15,2013-06-16 20:53:00,
2013-06-16 16:54:00,58.5,55.0,29.69,NW,308,0.0,8.0,88,0.00,,,0.01,Wunderground v.1.15,2013-06-16 20:54:00,
2013-06-16 16:56:00,58.6,55.1,29.68,WSW,243,8.0,9.0,88,0.00,,,0.01,Wunderground v.1.15,2013-06-16 20:56:00,
2013-06-16 16:57:00,58.6,54.7,29.69,South,174,5.0,9.0,87,0.00,,,0.01,Wunderground v.1.15,2013-06-16 20:57:00,
2013-06-16 16:58:00,58.6,54.7,29.69,South,184,2.0,9.0,87,0.00,,,0.01,Wunderground v.1.15,2013-06-16 20:58:00,
2013-06-16 16:59:00,58.7,54.8,29.69,ESE,121,6.0,9.0,87,0.00,,,0.01,Wunderground v.1.15,2013-06-16 20:59:00,
2013-06-16 17:01:00,58.7,55.2,29.69,WNW,286,2.0,3.0,88,0.00,,,0.01,Wunderground v.1.15,2013-06-16 21:01:00,
2013-06-16 17:02:00,58.7,54.8,29.69,SSW,205,2.0,8.0,87,0.00,,,0.01,Wunderground v.1.15,2013-06-16 21:02:00,
2013-06-16 17:04:00,58.7,55.2,29.68,SW,235,0.0,8.0,88,0.00,,,0.01,Wunderground v.1.15,2013-06-16 21:04:00,
2013-06-16 17:05:00,58.7,55.2,29.68,WNW,299,10.0,11.0,88,0.00,,,0.01,Wunderground v.1.15,2013-06-16 21:05:00,
2013-06-16 17:06:00,58.6,55.1,29.68,SSW,198,2.0,11.0,88,0.00,,,0.01,Wunderground v.1.15,2013-06-16 21:06:00,
2013-06-16 17:08:00,58.6,55.4,29.68,ENE,66,0.0,11.0,89,0.00,,,0.01,Wunderground v.1.15,2013-06-16 21:08:00,
2013-06-16 17:09:00,58.6,55.1,29.69,SW,229,0.0,11.0,88,0.00,,,0.01,Wunderground v.1.15,2013-06-16 21:09:00,
2013-06-16 17:10:00,58.6,55.1,29.68,WSW,252,0.0,11.0,88,0.00,,,0.01,Wunderground v.1.15,2013-06-16 21:10:00,
2013-06-16 17:11:00,58.6,55.4,29.68,WSW,257,0.0,2.0,89,0.00,,,0.01,Wunderground v.1.15,2013-06-16 21:11:00,
2013-06-16 17:12:00,58.5,55.6,29.69,SSE,159,2.0,7.0,90,0.00,,,0.01,Wunderground v.1.15,2013-06-16 21:12:00,
2013-06-16 17:13:00,58.4,55.5,29.69,ESE,113,1.0,7.0,90,0.00,,,0.01,Wunderground v.1.15,2013-06-16 21:13:00,
2013-06-16 17:15:00,58.4,55.2,29.68,South,182,2.0,8.0,89,0.00,,,0.02,Wunderground v.1.15,2013-06-16 21:15:00,
2013-06-16 17:16:00,58.3,55.4,29.68,WNW,290,0.0,8.0,90,0.00,,,0.02,Wunderground v.1.15,2013-06-16 21:16:00,
2013-06-16 17:17:00,58.2,55.3,29.68,SW,229,0.0,8.0,90,0.00,,,0.02,Wunderground v.1.15,2013-06-16 21:17:00,
2013-06-16 17:18:00,58.2,55.6,29.68,WNW,300,2.0,8.0,91,0.00,,,0.02,Wunderground v.1.15,2013-06-16 21:18:00,
2013-06-16 17:20:00,58.1,55.2,29.68,SW,226,1.0,2.0,90,0.00,,,0.02,Wunderground v.1.15,2013-06-16 21:20:00,
2013-06-16 17:21:00,58.0,55.4,29.68,SSW,209,5.0,5.0,91,0.00,,,0.02,Wunderground v.1.15,2013-06-16 21:21:00,
2013-06-16 17:23:00,58.0,55.4,29.68,South,181,0.0,7.0,91,0.00,,,0.02,Wunderground v.1.15,2013-06-16 21:23:00,
2013-06-16 17:25:00,57.9,55.3,29.68,SSW,192,0.0,7.0,91,0.00,,,0.02,Wunderground v.1.15,2013-06-16 21:25:00,
2013-06-16 17:27:00,57.9,55.3,29.68,SSW,211,0.0,7.0,91,0.00,,,0.02,Wunderground v.1.15,2013-06-16 21:27:00,
2013-06-16 17:28:00,57.9,55.6,29.68,SSW,192,4.0,7.0,92,0.00,,,0.02,Wunderground v.1.15,2013-06-16 21:28:00,
2013-06-16 17:29:00,57.9,55.6,29.68,South,178,0.0,7.0,92,0.00,,,0.02,Wunderground v.1.15,2013-06-16 21:29:00,
2013-06-16 17:30:00,57.8,55.5,29.68,WSW,251,4.0,6.0,92,0.00,,,0.02,Wunderground v.1.15,2013-06-16 21:30:00,
2013-06-16 17:31:00,57.8,55.5,29.68,SW,217,3.0,6.0,92,0.00,,,0.02,Wunderground v.1.15,2013-06-16 21:31:00,
2013-06-16 17:32:00,57.8,55.5,29.68,SE,146,1.0,6.0,92,0.00,,,0.02,Wunderground v.1.15,2013-06-16 21:32:00,
2013-06-16 17:33:00,57.8,55.5,29.68,South,178,1.0,6.0,92,0.00,,,0.02,Wunderground v.1.15,2013-06-16 21:33:00,
2013-06-16 17:34:00,57.8,55.5,29.68,SSW,208,0.0,6.0,92,0.00,,,0.02,Wunderground v.1.15,2013-06-16 21:34:00,
2013-06-16 17:36:00,57.7,55.7,29.68,South,179,0.0,6.0,93,0.00,,,0.02,Wunderground v.1.15,2013-06-16 21:36:00,
2013-06-16 17:37:00,57.7,55.7,29.68,WSW,258,2.0,6.0,93,0.00,,,0.03,Wunderground v.1.15,2013-06-16 21:37:00,
2013-06-16 17:38:00,57.6,55.6,29.68,SW,230,3.0,9.0,93,0.00,,,0.03,Wunderground v.1.15,2013-06-16 21:38:00,
2013-06-16 17:39:00,57.6,55.6,29.68,SW,232,7.0,9.0,93,0.00,,,0.03,Wunderground v.1.15,2013-06-16 21:39:00,
2013-06-16 17:41:00,57.6,55.6,29.68,South,187,0.0,2.0,93,0.00,,,0.03,Wunderground v.1.15,2013-06-16 21:41:00,
2013-06-16 17:42:00,57.5,55.5,29.68,SW,234,6.0,9.0,93,0.00,,,0.03,Wunderground v.1.15,2013-06-16 21:42:00,
2013-06-16 17:43:00,57.5,55.8,29.67,SW,215,2.0,9.0,94,0.00,,,0.03,Wunderground v.1.15,2013-06-16 21:43:00,
2013-06-16 17:44:00,57.5,55.8,29.68,West,274,2.0,9.0,94,0.00,,,0.03,Wunderground v.1.15,2013-06-16 21:44:00,
2013-06-16 17:46:00,57.4,55.7,29.67,WSW,243,0.0,9.0,94,0.00,,,0.03,Wunderground v.1.15,2013-06-16 21:46:00,
2013-06-16 17:47:00,57.4,55.7,29.67,SSE,163,2.0,9.0,94,0.00,,,0.03,Wunderground v.1.15,2013-06-16 21:47:00,
2013-06-16 17:48:00,57.3,55.6,29.67,SSE,164,1.0,9.0,94,0.00,,,0.03,Wunderground v.1.15,2013-06-16 21:48:00,
2013-06-16 17:49:00,57.3,55.6,29.67,SSW,210,1.0,9.0,94,0.00,,,0.03,Wunderground v.1.15,2013-06-16 21:49:00,
2013-06-16 17:51:00,57.3,55.6,29.67,SE,145,7.0,7.0,94,0.00,,,0.03,Wunderground v.1.15,2013-06-16 21:51:00,
2013-06-16 17:52:00,57.3,55.6,29.67,WSW,254,0.0,7.0,94,0.00,,,0.03,Wunderground v.1.15,2013-06-16 21:52:00,
2013-06-16 17:54:00,57.2,55.8,29.67,SW,234,0.0,7.0,95,0.00,,,0.03,Wunderground v.1.15,2013-06-16 21:54:00,
2013-06-16 17:56:00,57.2,55.8,29.67,West,271,0.0,7.0,95,0.00,,,0.03,Wunderground v.1.15,2013-06-16 21:56:00,
2013-06-16 17:57:00,57.2,55.8,29.67,South,185,3.0,7.0,95,0.00,,,0.03,Wunderground v.1.15,2013-06-16 21:57:00,
2013-06-16 17:59:00,57.2,55.8,29.67,WSW,252,0.0,7.0,95,0.00,,,0.04,Wunderground v.1.15,2013-06-16 21:59:00,
2013-06-16 18:00:00,57.2,55.8,29.67,SW,218,0.0,7.0,95,0.00,,,0.04,Wunderground v.1.15,2013-06-16 22:00:00,
2013-06-16 18:01:00,57.2,56.1,29.67,West,270,0.0,7.0,96,0.00,,,0.04,Wunderground v.1.15,2013-06-16 22:01:00,
2013-06-16 18:02:00,57.2,56.1,29.67,WSW,239,1.0,7.0,96,0.00,,,0.04,Wunderground v.1.15,2013-06-16 22:02:00,
2013-06-16 18:04:00,57.2,56.1,29.67,West,269,2.0,7.0,96,0.00,,,0.04,Wunderground v.1.15,2013-06-16 22:04:00,
2013-06-16 18:05:00,57.2,56.1,29.67,NW,308,4.0,9.0,96,0.00,,,0.04,Wunderground v.1.15,2013-06-16 22:05:00,
2013-06-16 18:07:00,57.3,56.2,29.67,WNW,286,0.0,9.0,96,0.00,,,0.04,Wunderground v.1.15,2013-06-16 22:07:00,
2013-06-16 18:08:00,57.3,56.2,29.67,West,265,1.0,9.0,96,0.00,,,0.04,Wunderground v.1.15,2013-06-16 22:08:00,
2013-06-16 18:09:00,57.3,56.2,29.67,SSW,198,3.0,9.0,96,0.00,,,0.04,Wunderground v.1.15,2013-06-16 22:09:00,
2013-06-16 18:11:00,57.3,56.2,29.67,SW,222,4.0,4.0,96,0.00,,,0.04,Wunderground v.1.15,2013-06-16 22:11:00,
2013-06-16 18:12:00,57.3,56.2,29.67,SW,234,0.0,8.0,96,0.00,,,0.04,Wunderground v.1.15,2013-06-16 22:12:00,
2013-06-16 18:13:00,57.3,56.2,29.67,WNW,295,0.0,10.0,96,0.00,,,0.04,Wunderground v.1.15,2013-06-16 22:13:00,
2013-06-16 18:14:00,57.3,56.2,29.67,South,171,0.0,10.0,96,0.00,,,0.04,Wunderground v.1.15,2013-06-16 22:14:00,
2013-06-16 18:16:00,57.3,56.2,29.67,WSW,237,0.0,10.0,96,0.00,,,0.04,Wunderground v.1.15,2013-06-16 22:16:00,
2013-06-16 18:17:00,57.3,56.2,29.67,WSW,240,1.0,10.0,96,0.00,,,0.05,Wunderground v.1.15,2013-06-16 22:17:00,
2013-06-16 18:18:00,57.3,56.2,29.67,WSW,250,1.0,10.0,96,0.00,,,0.05,Wunderground v.1.15,2013-06-16 22:18:00,
2013-06-16 18:20:00,57.3,56.2,29.67,WSW,250,0.0,10.0,96,0.00,,,0.05,Wunderground v.1.15,2013-06-16 22:20:00,
2013-06-16 18:21:00,57.3,56.2,29.67,NW,320,0.0,2.0,96,0.00,,,0.05,Wunderground v.1.15,2013-06-16 22:21:00,
2013-06-16 18:22:00,57.3,56.5,29.67,SSW,208,1.0,7.0,97,0.00,,,0.05,Wunderground v.1.15,2013-06-16 22:22:00,
2013-06-16 18:23:00,57.4,56.6,29.67,WNW,284,1.0,7.0,97,0.00,,,0.05,Wunderground v.1.15,2013-06-16 22:23:00,
2013-06-16 18:24:00,57.4,56.6,29.67,SSW,194,0.0,9.0,97,0.00,,,0.05,Wunderground v.1.15,2013-06-16 22:24:00,
2013-06-16 18:25:00,57.4,56.6,29.67,SSW,206,0.0,9.0,97,0.00,,,0.05,Wunderground v.1.15,2013-06-16 22:25:00,
2013-06-16 18:26:00,57.4,56.6,29.67,WSW,240,5.0,9.0,97,0.00,,,0.05,Wunderground v.1.15,2013-06-16 22:26:00,
2013-06-16 18:28:00,57.4,56.6,29.67,SSW,196,3.0,9.0,97,0.00,,,0.05,Wunderground v.1.15,2013-06-16 22:28:00,
2013-06-16 18:30:00,57.4,56.6,29.67,SW,217,0.0,9.0,97,0.00,,,0.05,Wunderground v.1.15,2013-06-16 22:30:00,
2013-06-16 18:32:00,57.4,56.6,29.67,WSW,251,1.0,4.0,97,0.00,,,0.05,Wunderground v.1.15,2013-06-16 22:32:00,
2013-06-16 18:33:00,57.4,56.6,29.67,WNW,285,0.0,6.0,97,0.00,,,0.05,Wunderground v.1.15,2013-06-16 22:33:00,
2013-06-16 18:34:00,57.4,56.6,29.67,WSW,244,0.0,6.0,97,0.00,,,0.05,Wunderground v.1.15,2013-06-16 22:34:00,
2013-06-16 18:35:00,57.5,56.7,29.67,WSW,255,0.0,6.0,97,0.00,,,0.05,Wunderground v.1.15,2013-06-16 22:35:00,
2013-06-16 18:37:00,57.5,56.7,29.67,SW,215,0.0,6.0,97,0.00,,,0.05,Wunderground v.1.15,2013-06-16 22:37:00,
2013-06-16 18:38:00,57.5,56.7,29.67,SW,215,0.0,6.0,97,0.00,,,0.06,Wunderground v.1.15,2013-06-16 22:38:00,
2013-06-16 18:39:00,57.5,56.7,29.67,WSW,250,2.0,6.0,97,0.00,,,0.06,Wunderground v.1.15,2013-06-16 22:39:00,
2013-06-16 18:40:00,57.5,56.7,29.67,WSW,250,2.0,2.0,97,0.00,,,0.06,Wunderground v.1.15,2013-06-16 22:40:00,
2013-06-16 18:41:00,57.5,56.7,29.67,WNW,298,3.0,3.0,97,0.00,,,0.06,Wunderground v.1.15,2013-06-16 22:41:00,
2013-06-16 18:42:00,57.5,56.7,29.67,West,271,1.0,3.0,97,0.00,,,0.06,Wunderground v.1.15,2013-06-16 22:42:00,
2013-06-16 18:43:00,57.5,56.7,29.67,West,270,3.0,5.0,97,0.00,,,0.06,Wunderground v.1.15,2013-06-16 22:43:00,
2013-06-16 18:44:00,57.5,56.7,29.67,WSW,242,0.0,5.0,97,0.00,,,0.06,Wunderground v.1.15,2013-06-16 22:44:00,
2013-06-16 18:45:00,57.5,56.7,29.67,West,261,3.0,5.0,97,0.00,,,0.06,Wunderground v.1.15,2013-06-16 22:45:00,
2013-06-16 18:46:00,57.5,56.7,29.67,West,280,0.0,5.0,97,0.00,,,0.06,Wunderground v.1.15,2013-06-16 22:46:00,
2013-06-16 18:47:00,57.5,56.7,29.67,West,275,1.0,6.0,97,0.00,,,0.06,Wunderground v.1.15,2013-06-16 22:47:00,
2013-06-16 18:48:00,57.5,56.7,29.67,WSW,255,0.0,6.0,97,0.00,,,0.06,Wunderground v.1.15,2013-06-16 22:48:00,
2013-06-16 18:49:00,57.6,56.8,29.67,West,281,1.0,6.0,97,0.00,,,0.06,Wunderground v.1.15,2013-06-16 22:49:00,
2013-06-16 18:51:00,57.6,56.8,29.67,SW,222,0.0,2.0,97,0.00,,,0.06,Wunderground v.1.15,2013-06-16 22:51:00,
2013-06-16 18:52:00,57.6,56.8,29.67,West,275,1.0,3.0,97,0.00,,,0.06,Wunderground v.1.15,2013-06-16 22:52:00,
2013-06-16 18:53:00,57.6,56.8,29.67,West,271,2.0,7.0,97,0.00,,,0.06,Wunderground v.1.15,2013-06-16 22:53:00,
2013-06-16 18:54:00,57.6,56.8,29.67,West,269,1.0,7.0,97,0.00,,,0.06,Wunderground v.1.15,2013-06-16 22:54:00,
2013-06-16 18:56:00,57.6,56.8,29.67,SSW,209,0.0,7.0,97,0.00,,,0.06,Wunderground v.1.15,2013-06-16 22:56:00,
2013-06-16 18:57:00,57.6,56.8,29.67,WSW,245,0.0,7.0,97,0.00,,,0.06,Wunderground v.1.15,2013-06-16 22:57:00,
2013-06-16 18:58:00,57.6,56.8,29.67,SSW,202,0.0,7.0,97,0.00,,,0.06,Wunderground v.1.15,2013-06-16 22:58:00,
2013-06-16 18:59:00,57.6,56.8,29.67,SSW,209,0.0,7.0,97,0.00,,,0.06,Wunderground v.1.15,2013-06-16 22:59:00,
2013-06-16 19:01:00,57.6,56.8,29.67,SSW,212,3.0,6.0,97,0.00,,,0.06,Wunderground v.1.15,2013-06-16 23:01:00,
2013-06-16 19:02:00,57.6,57.0,29.67,SSW,212,0.0,6.0,98,0.00,,,0.06,Wunderground v.1.15,2013-06-16 23:02:00,
2013-06-16 19:03:00,57.6,57.0,29.67,SSW,212,0.0,6.0,98,0.00,,,0.06,Wunderground v.1.15,2013-06-16 23:03:00,
2013-06-16 19:04:00,57.6,57.0,29.67,SSW,212,0.0,6.0,98,0.00,,,0.06,Wunderground v.1.15,2013-06-16 23:04:00,
2013-06-16 19:05:00,57.6,57.0,29.67,West,271,0.0,6.0,98,0.00,,,0.06,Wunderground v.1.15,2013-06-16 23:05:00,
2013-06-16 19:06:00,57.6,57.0,29.67,WNW,283,0.0,6.0,98,0.00,,,0.06,Wunderground v.1.15,2013-06-16 23:06:00,
2013-06-16 19:07:00,57.7,57.1,29.67,SW,222,0.0,6.0,98,0.00,,,0.06,Wunderground v.1.15,2013-06-16 23:07:00,
2013-06-16 19:09:00,57.7,57.1,29.67,WSW,254,0.0,6.0,98,0.00,,,0.06,Wunderground v.1.15,2013-06-16 23:09:00,
2013-06-16 19:10:00,57.6,57.0,29.67,West,261,2.0,2.0,98,0.00,,,0.06,Wunderground v.1.15,2013-06-16 23:10:00,
2013-06-16 19:11:00,57.7,57.1,29.67,WSW,252,0.0,2.0,98,0.00,,,0.06,Wunderground v.1.15,2013-06-16 23:11:00,
2013-06-16 19:13:00,57.7,57.1,29.68,WSW,245,0.0,4.0,98,0.00,,,0.06,Wunderground v.1.15,2013-06-16 23:13:00,
2013-06-16 19:14:00,57.7,57.1,29.68,NW,321,2.0,4.0,98,0.00,,,0.06,Wunderground v.1.15,2013-06-16 23:14:00,
2013-06-16 19:16:00,57.7,57.1,29.68,WSW,252,1.0,4.0,98,0.00,,,0.06,Wunderground v.1.15,2013-06-16 23:16:00,
2013-06-16 19:17:00,57.7,57.1,29.68,WNW,289,5.0,5.0,98,0.00,,,0.06,Wunderground v.1.15,2013-06-16 23:17:00,
2013-06-16 19:18:00,57.8,57.2,29.68,WNW,289,3.0,5.0,98,0.00,,,0.06,Wunderground v.1.15,2013-06-16 23:18:00,
2013-06-16 19:19:00,57.8,57.2,29.68,West,263,2.0,5.0,98,0.00,,,0.06,Wunderground v.1.15,2013-06-16 23:19:00,
2013-06-16 19:21:00,57.8,57.2,29.68,West,265,6.0,9.0,98,0.00,,,0.06,Wunderground v.1.15,2013-06-16 23:21:00,
2013-06-16 19:22:00,57.9,57.3,29.68,SW,220,0.0,9.0,98,0.00,,,0.06,Wunderground v.1.15,2013-06-16 23:22:00,
2013-06-16 19:24:00,57.9,57.3,29.68,WSW,242,3.0,9.0,98,0.00,,,0.06,Wunderground v.1.15,2013-06-16 23:24:00,
2013-06-16 19:25:00,57.9,57.3,29.68,SW,236,0.0,9.0,98,0.00,,,0.06,Wunderground v.1.15,2013-06-16 23:25:00,
2013-06-16 19:27:00,57.9,57.3,29.68,WSW,249,0.0,9.0,98,0.00,,,0.06,Wunderground v.1.15,2013-06-16 23:27:00,
2013-06-16 19:29:00,58.0,57.4,29.68,SSE,154,4.0,9.0,98,0.00,,,0.06,Wunderground v.1.15,2013-06-16 23:29:00,
2013-06-16 19:30:00,58.0,57.4,29.68,SE,124,5.0,9.0,98,0.00,,,0.06,Wunderground v.1.15,2013-06-16 23:30:00,
2013-06-16 19:31:00,58.0,57.4,29.68,WSW,256,3.0,3.0,98,0.00,,,0.06,Wunderground v.1.15,2013-06-16 23:31:00,
2013-06-16 19:32:00,58.1,57.5,29.68,SE,135,1.0,7.0,98,0.00,,,0.06,Wunderground v.1.15,2013-06-16 23:32:00,
2013-06-16 19:33:00,58.2,57.6,29.68,WSW,240,0.0,7.0,98,0.00,,,0.06,Wunderground v.1.15,2013-06-16 23:33:00,
2013-06-16 19:35:00,58.2,57.6,29.68,NW,323,1.0,7.0,98,0.00,,,0.06,Wunderground v.1.15,2013-06-16 23:35:00,
2013-06-16 19:36:00,58.2,57.6,29.68,SSW,207,0.0,7.0,98,0.00,,,0.06,Wunderground v.1.15,2013-06-16 23:36:00,
2013-06-16 19:37:00,58.1,57.5,29.68,NNW,330,1.0,7.0,98,0.00,,,0.06,Wunderground v.1.15,2013-06-16 23:37:00,
2013-06-16 19:39:00,58.2,57.6,29.68,WSW,253,0.0,7.0,98,0.00,,,0.06,Wunderground v.1.15,2013-06-16 23:39:00,
2013-06-16 19:40:00,58.2,57.6,29.68,WSW,251,0.0,1.0,98,0.00,,,0.06,Wunderground v.1.15,2013-06-16 23:40:00,
2013-06-16 19:41:00,58.2,57.6,29.68,South,180,0.0,2.0,98,0.00,,,0.06,Wunderground v.1.15,2013-06-16 23:41:00,
2013-06-16 19:42:00,58.2,57.6,29.69,South,180,0.0,2.0,98,0.00,,,0.06,Wunderground v.1.15,2013-06-16 23:42:00,
2013-06-16 19:45:00,58.3,57.7,29.69,WNW,286,0.0,3.0,98,0.00,,,0.06,Wunderground v.1.15,2013-06-16 23:45:00,
2013-06-16 19:47:00,58.2,57.6,29.69,WNW,286,0.0,3.0,98,0.00,,,0.06,Wunderground v.1.15,2013-06-16 23:47:00,
2013-06-16 19:48:00,58.3,57.7,29.69,West,264,0.0,3.0,98,0.00,,,0.06,Wunderground v.1.15,2013-06-16 23:48:00,
2013-06-16 19:50:00,58.3,57.7,29.69,WSW,248,0.0,1.0,98,0.00,,,0.06,Wunderground v.1.15,2013-06-16 23:50:00,
2013-06-16 19:52:00,58.3,57.7,29.69,WSW,238,1.0,1.0,98,0.00,,,0.06,Wunderground v.1.15,2013-06-16 23:52:00,
2013-06-16 19:53:00,58.3,57.7,29.69,WSW,238,0.0,1.0,98,0.00,,,0.06,Wunderground v.1.15,2013-06-16 23:53:00,
2013-06-16 19:55:00,58.3,57.7,29.69,WSW,240,2.0,3.0,98,0.00,,,0.06,Wunderground v.1.15,2013-06-16 23:55:00,
2013-06-16 19:57:00,58.3,57.7,29.69,WSW,248,0.0,4.0,98,0.00,,,0.06,Wunderground v.1.15,2013-06-16 23:57:00,
2013-06-16 19:58:00,58.3,57.7,29.69,WSW,242,3.0,4.0,98,0.00,,,0.06,Wunderground v.1.15,2013-06-16 23:58:00,
2013-06-16 20:00:00,58.3,57.7,29.69,West,269,1.0,2.0,98,0.00,,,0.06,Wunderground v.1.15,2013-06-17 00:00:00,
2013-06-16 20:02:00,58.3,57.7,29.69,West,264,0.0,4.0,98,0.00,,,0.06,Wunderground v.1.15,2013-06-17 00:02:00,
2013-06-16 20:03:00,58.3,57.7,29.70,WNW,293,2.0,4.0,98,0.00,,,0.06,Wunderground v.1.15,2013-06-17 00:03:00,
2013-06-16 20:05:00,58.3,57.7,29.70,WNW,293,0.0,4.0,98,0.00,,,0.06,Wunderground v.1.15,2013-06-17 00:05:00,
2013-06-16 20:06:00,58.3,57.7,29.70,WNW,293,0.0,4.0,98,0.00,,,0.06,Wunderground v.1.15,2013-06-17 00:06:00,
2013-06-16 20:07:00,58.3,57.7,29.69,West,261,2.0,4.0,98,0.00,,,0.06,Wunderground v.1.15,2013-06-17 00:07:00,
2013-06-16 20:08:00,58.3,57.7,29.70,WSW,248,1.0,4.0,98,0.00,,,0.06,Wunderground v.1.15,2013-06-17 00:08:00,
2013-06-16 20:11:00,58.3,57.7,29.70,WSW,253,1.0,4.0,98,0.00,,,0.06,Wunderground v.1.15,2013-06-17 00:11:00,
2013-06-16 20:13:00,58.4,57.8,29.70,West,277,8.0,12.0,98,0.00,,,0.06,Wunderground v.1.15,2013-06-17 00:13:00,
2013-06-16 20:14:00,58.5,57.9,29.70,SW,235,2.0,12.0,98,0.00,,,0.06,Wunderground v.1.15,2013-06-17 00:14:00,
2013-06-16 20:16:00,58.5,57.9,29.70,SW,227,3.0,12.0,98,0.00,,,0.06,Wunderground v.1.15,2013-06-17 00:16:00,
2013-06-16 20:18:00,58.6,58.0,29.70,South,174,2.0,13.0,98,0.00,,,0.06,Wunderground v.1.15,2013-06-17 00:18:00,
2013-06-16 20:19:00,58.6,58.0,29.70,NW,322,7.0,13.0,98,0.00,,,0.06,Wunderground v.1.15,2013-06-17 00:19:00,
2013-06-16 20:22:00,58.7,58.1,29.70,SSW,202,3.0,5.0,98,0.00,,,0.06,Wunderground v.1.15,2013-06-17 00:22:00,
2013-06-16 20:23:00,58.7,58.1,29.70,West,265,0.0,7.0,98,0.00,,,0.06,Wunderground v.1.15,2013-06-17 00:23:00,
2013-06-16 20:24:00,58.7,58.1,29.70,West,265,3.0,7.0,98,0.00,,,0.06,Wunderground v.1.15,2013-06-17 00:24:00,
2013-06-16 20:25:00,58.7,58.1,29.70,SW,232,3.0,12.0,98,0.00,,,0.06,Wunderground v.1.15,2013-06-17 00:25:00,
2013-06-16 20:27:00,58.7,58.1,29.70,WSW,255,4.0,12.0,98,0.00,,,0.06,Wunderground v.1.15,2013-06-17 00:27:00,
2013-06-16 20:28:00,58.7,58.1,29.70,SSE,168,0.0,12.0,98,0.00,,,0.06,Wunderground v.1.15,2013-06-17 00:28:00,
2013-06-16 20:29:00,58.7,58.1,29.70,SW,219,0.0,12.0,98,0.00,,,0.06,Wunderground v.1.15,2013-06-17 00:29:00,
2013-06-16 20:30:00,58.7,58.1,29.70,West,261,1.0,12.0,98,0.00,,,0.06,Wunderground v.1.15,2013-06-17 00:30:00,
2013-06-16 20:32:00,58.6,58.0,29.70,WSW,240,4.0,4.0,98,0.00,,,0.06,Wunderground v.1.15,2013-06-17 00:32:00,
2013-06-16 20:33:00,58.7,58.1,29.70,West,260,4.0,7.0,98,0.00,,,0.06,Wunderground v.1.15,2013-06-17 00:33:00,
2013-06-16 20:34:00,58.6,58.0,29.70,West,272,2.0,7.0,98,0.00,,,0.06,Wunderground v.1.15,2013-06-17 00:34:00,
2013-06-16 20:35:00,58.6,58.0,29.70,West,265,3.0,7.0,98,0.00,,,0.06,Wunderground v.1.15,2013-06-17 00:35:00,
2013-06-16 20:38:00,58.6,58.0,29.70,SSW,208,2.0,7.0,98,0.00,,,0.06,Wunderground v.1.15,2013-06-17 00:38:00,
2013-06-16 20:39:00,58.7,58.1,29.70,South,181,2.0,7.0,98,0.00,,,0.06,Wunderground v.1.15,2013-06-17 00:39:00,
2013-06-16 20:40:00,58.6,58.0,29.70,South,189,2.0,7.0,98,0.00,,,0.06,Wunderground v.1.15,2013-06-17 00:40:00,
2013-06-16 20:43:00,58.6,58.0,29.70,South,185,0.0,4.0,98,0.00,,,0.06,Wunderground v.1.15,2013-06-17 00:43:00,
2013-06-16 20:45:00,58.6,58.0,29.70,WSW,240,3.0,7.0,98,0.00,,,0.06,Wunderground v.1.15,2013-06-17 00:45:00,
2013-06-16 20:48:00,58.6,58.0,29.70,ESE,116,4.0,12.0,98,0.00,,,0.06,Wunderground v.1.15,2013-06-17 00:48:00,
2013-06-16 20:50:00,58.6,58.0,29.70,SSW,204,3.0,4.0,98,0.00,,,0.06,Wunderground v.1.15,2013-06-17 00:50:00,
2013-06-16 20:51:00,58.7,58.1,29.70,West,265,5.0,5.0,98,0.00,,,0.06,Wunderground v.1.15,2013-06-17 00:51:00,
2013-06-16 20:53:00,58.6,58.0,29.70,SW,233,1.0,5.0,98,0.00,,,0.06,Wunderground v.1.15,2013-06-17 00:53:00,
2013-06-16 20:54:00,58.6,58.0,29.70,West,274,3.0,5.0,98,0.00,,,0.06,Wunderground v.1.15,2013-06-17 00:54:00,
2013-06-16 20:56:00,58.6,57.8,29.71,SSW,210,0.0,6.0,97,0.00,,,0.06,Wunderground v.1.15,2013-06-17 00:56:00,
2013-06-16 20:58:00,58.6,57.8,29.71,SSW,207,2.0,7.0,97,0.00,,,0.06,Wunderground v.1.15,2013-06-17 00:58:00,
2013-06-16 20:59:00,58.6,57.8,29.71,WNW,291,4.0,7.0,97,0.00,,,0.06,Wunderground v.1.15,2013-06-17 00:59:00,
2013-06-16 21:01:00,58.6,57.8,29.71,West,263,2.0,6.0,97,0.00,,,0.06,Wunderground v.1.15,2013-06-17 01:01:00,
2013-06-16 21:02:00,58.6,57.8,29.71,NW,305,3.0,6.0,97,0.00,,,0.06,Wunderground v.1.15,2013-06-17 01:02:00,
2013-06-16 21:03:00,58.6,57.8,29.71,SSE,159,0.0,6.0,97,0.00,,,0.06,Wunderground v.1.15,2013-06-17 01:03:00,
2013-06-16 21:04:00,58.6,57.8,29.71,WSW,254,4.0,6.0,97,0.00,,,0.06,Wunderground v.1.15,2013-06-17 01:04:00,
2013-06-16 21:06:00,58.6,57.8,29.71,NNW,342,0.0,6.0,97,0.00,,,0.06,Wunderground v.1.15,2013-06-17 01:06:00,
2013-06-16 21:07:00,58.6,57.8,29.71,ENE,71,1.0,6.0,97,0.00,,,0.06,Wunderground v.1.15,2013-06-17 01:07:00,
2013-06-16 21:08:00,58.6,57.8,29.71,WSW,246,4.0,10.0,97,0.00,,,0.06,Wunderground v.1.15,2013-06-17 01:08:00,
2013-06-16 21:10:00,58.7,57.9,29.72,SW,219,2.0,3.0,97,0.00,,,0.06,Wunderground v.1.15,2013-06-17 01:10:00,
2013-06-16 21:11:00,58.8,58.0,29.72,South,180,4.0,7.0,97,0.00,,,0.06,Wunderground v.1.15,2013-06-17 01:11:00,
2013-06-16 21:12:00,58.7,57.9,29.72,West,261,2.0,7.0,97,0.00,,,0.06,Wunderground v.1.15,2013-06-17 01:12:00,
2013-06-16 21:13:00,58.8,58.0,29.72,SW,215,0.0,7.0,97,0.00,,,0.06,Wunderground v.1.15,2013-06-17 01:13:00,
2013-06-16 21:15:00,58.8,58.0,29.72,South,173,4.0,7.0,97,0.00,,,0.06,Wunderground v.1.15,2013-06-17 01:15:00,
2013-06-16 21:16:00,58.7,57.9,29.72,WNW,284,1.0,9.0,97,0.00,,,0.06,Wunderground v.1.15,2013-06-17 01:16:00,
2013-06-16 21:18:00,58.7,57.9,29.72,WNW,282,5.0,9.0,97,0.00,,,0.06,Wunderground v.1.15,2013-06-17 01:18:00,
2013-06-16 21:19:00,58.7,57.9,29.72,NW,321,2.0,9.0,97,0.00,,,0.06,Wunderground v.1.15,2013-06-17 01:19:00,
2013-06-16 21:20:00,58.7,57.9,29.72,West,281,1.0,2.0,97,0.00,,,0.06,Wunderground v.1.15,2013-06-17 01:20:00,
2013-06-16 21:22:00,58.7,57.9,29.72,WSW,245,0.0,7.0,97,0.00,,,0.06,Wunderground v.1.15,2013-06-17 01:22:00,
2013-06-16 21:23:00,58.7,57.9,29.72,West,268,0.0,7.0,97,0.00,,,0.06,Wunderground v.1.15,2013-06-17 01:23:00,
2013-06-16 21:24:00,58.7,57.9,29.73,SSE,166,0.0,7.0,97,0.00,,,0.06,Wunderground v.1.15,2013-06-17 01:24:00,
2013-06-16 21:26:00,58.6,57.8,29.73,SSW,196,1.0,7.0,97,0.00,,,0.06,Wunderground v.1.15,2013-06-17 01:26:00,
2013-06-16 21:27:00,58.6,57.8,29.73,West,277,0.0,7.0,97,0.00,,,0.06,Wunderground v.1.15,2013-06-17 01:27:00,
2013-06-16 21:28:00,58.6,57.8,29.73,SW,232,0.0,7.0,97,0.00,,,0.06,Wunderground v.1.15,2013-06-17 01:28:00,
2013-06-16 21:29:00,58.6,57.8,29.73,West,264,1.0,7.0,97,0.00,,,0.06,Wunderground v.1.15,2013-06-17 01:29:00,
2013-06-16 21:30:00,58.6,57.8,29.73,West,275,4.0,4.0,97,0.00,,,0.06,Wunderground v.1.15,2013-06-17 01:30:00,
2013-06-16 21:31:00,58.6,57.8,29.73,SSW,207,2.0,5.0,97,0.00,,,0.06,Wunderground v.1.15,2013-06-17 01:31:00,
2013-06-16 21:32:00,58.6,57.8,29.73,WNW,284,1.0,5.0,97,0.00,,,0.06,Wunderground v.1.15,2013-06-17 01:32:00,
2013-06-16 21:33:00,58.6,57.8,29.73,West,263,1.0,5.0,97,0.00,,,0.06,Wunderground v.1.15,2013-06-17 01:33:00,
2013-06-16 21:34:00,58.6,57.8,29.73,WSW,244,1.0,8.0,97,0.00,,,0.06,Wunderground v.1.15,2013-06-17 01:34:00,
2013-06-16 21:36:00,58.6,57.8,29.73,West,271,4.0,8.0,97,0.00,,,0.06,Wunderground v.1.15,2013-06-17 01:36:00,
2013-06-16 21:37:00,58.6,57.8,29.73,South,176,5.0,8.0,97,0.00,,,0.06,Wunderground v.1.15,2013-06-17 01:37:00,
2013-06-16 21:38:00,58.6,57.8,29.73,ENE,70,5.0,12.0,97,0.00,,,0.06,Wunderground v.1.15,2013-06-17 01:38:00,
2013-06-16 21:39:00,58.6,57.8,29.73,WNW,294,3.0,12.0,97,0.00,,,0.06,Wunderground v.1.15,2013-06-17 01:39:00,
2013-06-16 21:42:00,58.7,57.9,29.73,SSW,198,1.0,4.0,97,0.00,,,0.06,Wunderground v.1.15,2013-06-17 01:42:00,
2013-06-16 21:43:00,58.7,57.9,29.73,SW,233,3.0,10.0,97,0.00,,,0.06,Wunderground v.1.15,2013-06-17 01:43:00,
2013-06-16 21:44:00,58.7,57.9,29.74,WSW,239,0.0,10.0,97,0.00,,,0.06,Wunderground v.1.15,2013-06-17 01:44:00,
2013-06-16 21:47:00,58.8,58.0,29.74,WSW,245,2.0,10.0,97,0.00,,,0.06,Wunderground v.1.15,2013-06-17 01:47:00,
2013-06-16 21:48:00,58.8,57.7,29.74,South,188,0.0,10.0,96,0.00,,,0.06,Wunderground v.1.15,2013-06-17 01:48:00,
2013-06-16 21:49:00,58.7,57.6,29.74,SW,219,0.0,10.0,96,0.00,,,0.06,Wunderground v.1.15,2013-06-17 01:49:00,
2013-06-16 21:52:00,58.7,57.6,29.74,West,266,0.0,8.0,96,0.00,,,0.06,Wunderground v.1.15,2013-06-17 01:52:00,
2013-06-16 21:53:00,58.8,57.7,29.74,SW,236,0.0,8.0,96,0.00,,,0.06,Wunderground v.1.15,2013-06-17 01:53:00,
2013-06-16 21:54:00,58.8,57.7,29.74,South,169,0.0,8.0,96,0.00,,,0.06,Wunderground v.1.15,2013-06-17 01:54:00,
2013-06-16 21:55:00,58.7,57.6,29.74,West,267,3.0,8.0,96,0.00,,,0.06,Wunderground v.1.15,2013-06-17 01:55:00,
2013-06-16 21:57:00,58.7,57.6,29.74,SSW,207,0.0,8.0,96,0.00,,,0.06,Wunderground v.1.15,2013-06-17 01:57:00,
2013-06-16 21:58:00,58.6,57.5,29.74,SE,145,2.0,8.0,96,0.00,,,0.06,Wunderground v.1.15,2013-06-17 01:58:00,
2013-06-16 21:59:00,58.5,57.4,29.74,SSE,161,1.0,8.0,96,0.00,,,0.06,Wunderground v.1.15,2013-06-17 01:59:00,
2013-06-16 22:00:00,58.4,57.3,29.74,SW,225,2.0,2.0,96,0.00,,,0.06,Wunderground v.1.15,2013-06-17 02:00:00,
2013-06-16 22:02:00,58.4,57.3,29.74,ESE,109,2.0,6.0,96,0.00,,,0.06,Wunderground v.1.15,2013-06-17 02:02:00,
2013-06-16 22:03:00,58.4,57.3,29.74,SSW,213,0.0,6.0,96,0.00,,,0.06,Wunderground v.1.15,2013-06-17 02:03:00,
2013-06-16 22:04:00,58.4,57.3,29.74,SSW,213,0.0,6.0,96,0.00,,,0.06,Wunderground v.1.15,2013-06-17 02:04:00,
2013-06-16 22:05:00,58.3,57.2,29.74,SSW,198,3.0,6.0,96,0.00,,,0.06,Wunderground v.1.15,2013-06-17 02:05:00,
2013-06-16 22:06:00,58.3,57.2,29.74,WSW,250,2.0,6.0,96,0.00,,,0.06,Wunderground v.1.15,2013-06-17 02:06:00,
2013-06-16 22:07:00,58.3,57.2,29.74,South,173,0.0,6.0,96,0.00,,,0.06,Wunderground v.1.15,2013-06-17 02:07:00,
2013-06-16 22:09:00,58.2,57.1,29.74,WSW,246,0.0,6.0,96,0.00,,,0.06,Wunderground v.1.15,2013-06-17 02:09:00,
2013-06-16 22:10:00,58.2,57.1,29.74,WSW,248,0.0,1.0,96,0.00,,,0.06,Wunderground v.1.15,2013-06-17 02:10:00,
2013-06-16 22:11:00,58.2,57.1,29.74,WSW,248,1.0,1.0,96,0.00,,,0.06,Wunderground v.1.15,2013-06-17 02:11:00,
2013-06-16 22:12:00,58.1,57.0,29.74,WSW,248,0.0,1.0,96,0.00,,,0.06,Wunderground v.1.15,2013-06-17 02:12:00,
2013-06-16 22:14:00,58.1,57.0,29.74,WSW,248,0.0,1.0,96,0.00,,,0.06,Wunderground v.1.15,2013-06-17 02:14:00,
2013-06-16 22:15:00,58.0,56.9,29.74,WSW,248,0.0,1.0,96,0.00,,,0.06,Wunderground v.1.15,2013-06-17 02:15:00,
2013-06-16 22:16:00,57.9,56.8,29.74,WSW,248,0.0,1.0,96,0.00,,,0.06,Wunderground v.1.15,2013-06-17 02:16:00,
2013-06-16 22:18:00,57.9,56.8,29.74,WNW,294,0.0,4.0,96,0.00,,,0.06,Wunderground v.1.15,2013-06-17 02:18:00,
2013-06-16 22:19:00,57.9,56.8,29.74,WSW,257,1.0,4.0,96,0.00,,,0.06,Wunderground v.1.15,2013-06-17 02:19:00,
2013-06-16 22:20:00,57.9,57.1,29.74,SSE,152,0.0,1.0,97,0.00,,,0.06,Wunderground v.1.15,2013-06-17 02:20:00,
2013-06-16 22:21:00,57.8,57.0,29.74,South,186,2.0,2.0,97,0.00,,,0.06,Wunderground v.1.15,2013-06-17 02:21:00,
2013-06-16 22:23:00,57.8,57.0,29.74,South,182,0.0,6.0,97,0.00,,,0.06,Wunderground v.1.15,2013-06-17 02:23:00,
2013-06-16 22:24:00,57.8,57.0,29.74,NW,309,0.0,6.0,97,0.00,,,0.06,Wunderground v.1.15,2013-06-17 02:24:00,
2013-06-16 22:25:00,57.8,57.0,29.74,SSE,161,0.0,6.0,97,0.00,,,0.06,Wunderground v.1.15,2013-06-17 02:25:00,
2013-06-16 22:26:00,57.8,57.0,29.74,SW,217,0.0,6.0,97,0.00,,,0.06,Wunderground v.1.15,2013-06-17 02:26:00,
2013-06-16 22:27:00,57.8,57.0,29.74,SSW,213,0.0,6.0,97,0.00,,,0.06,Wunderground v.1.15,2013-06-17 02:27:00,
2013-06-16 22:28:00,57.7,56.9,29.74,SSW,213,0.0,6.0,97,0.00,,,0.06,Wunderground v.1.15,2013-06-17 02:28:00,
2013-06-16 22:29:00,57.7,56.9,29.74,SSW,213,0.0,6.0,97,0.00,,,0.06,Wunderground v.1.15,2013-06-17 02:29:00,
2013-06-16 22:30:00,57.7,56.9,29.74,SSE,159,0.0,1.0,97,0.00,,,0.06,Wunderground v.1.15,2013-06-17 02:30:00,
2013-06-16 22:31:00,57.6,56.8,29.74,WSW,258,4.0,5.0,97,0.00,,,0.06,Wunderground v.1.15,2013-06-17 02:31:00,
2013-06-16 22:32:00,57.7,56.9,29.75,SW,219,0.0,5.0,97,0.00,,,0.06,Wunderground v.1.15,2013-06-17 02:32:00,
2013-06-16 22:34:00,57.7,56.9,29.75,South,178,1.0,5.0,97,0.00,,,0.06,Wunderground v.1.15,2013-06-17 02:34:00,
2013-06-16 22:35:00,57.7,56.9,29.75,South,188,2.0,5.0,97,0.00,,,0.06,Wunderground v.1.15,2013-06-17 02:35:00,
2013-06-16 22:36:00,57.7,56.9,29.75,SW,215,0.0,5.0,97,0.00,,,0.06,Wunderground v.1.15,2013-06-17 02:36:00,
2013-06-16 22:37:00,57.6,56.8,29.75,West,270,0.0,5.0,97,0.00,,,0.06,Wunderground v.1.15,2013-06-17 02:37:00,
2013-06-16 22:39:00,57.6,56.8,29.75,SW,223,0.0,5.0,97,0.00,,,0.06,Wunderground v.1.15,2013-06-17 02:39:00,
2013-06-16 22:40:00,57.6,56.8,29.75,SW,225,0.0,5.0,97,0.00,,,0.06,Wunderground v.1.15,2013-06-17 02:40:00,
2013-06-16 22:42:00,57.6,56.8,29.75,WSW,244,0.0,1.0,97,0.00,,,0.06,Wunderground v.1.15,2013-06-17 02:42:00,
2013-06-16 22:44:00,57.6,56.8,29.75,South,182,0.0,3.0,97,0.00,,,0.06,Wunderground v.1.15,2013-06-17 02:44:00,
2013-06-16 22:45:00,57.6,56.8,29.75,South,182,0.0,3.0,97,0.00,,,0.06,Wunderground v.1.15,2013-06-17 02:45:00,
2013-06-16 22:47:00,57.6,56.8,29.75,NW,315,1.0,3.0,97,0.00,,,0.06,Wunderground v.1.15,2013-06-17 02:47:00,
2013-06-16 22:49:00,57.6,56.8,29.75,NW,309,0.0,10.0,97,0.00,,,0.06,Wunderground v.1.15,2013-06-17 02:49:00,
2013-06-16 22:50:00,57.6,56.8,29.75,WNW,290,0.0,1.0,97,0.00,,,0.06,Wunderground v.1.15,2013-06-17 02:50:00,
2013-06-16 22:52:00,57.7,56.9,29.75,WSW,253,0.0,1.0,97,0.00,,,0.06,Wunderground v.1.15,2013-06-17 02:52:00,
2013-06-16 22:53:00,57.7,56.9,29.75,WSW,253,0.0,1.0,97,0.00,,,0.06,Wunderground v.1.15,2013-06-17 02:53:00,
2013-06-16 22:54:00,57.7,56.9,29.75,WNW,296,0.0,3.0,97,0.00,,,0.06,Wunderground v.1.15,2013-06-17 02:54:00,
2013-06-16 22:55:00,57.7,56.9,29.75,WNW,296,0.0,3.0,97,0.00,,,0.06,Wunderground v.1.15,2013-06-17 02:55:00,
2013-06-16 22:56:00,57.7,56.9,29.75,North,355,0.0,3.0,97,0.00,,,0.06,Wunderground v.1.15,2013-06-17 02:56:00,
2013-06-16 22:57:00,57.7,56.9,29.75,SSE,168,1.0,4.0,97,0.00,,,0.06,Wunderground v.1.15,2013-06-17 02:57:00,
2013-06-16 22:58:00,57.7,56.9,29.75,SSE,168,0.0,4.0,97,0.00,,,0.06,Wunderground v.1.15,2013-06-17 02:58:00,
2013-06-16 22:59:00,57.7,56.9,29.75,WSW,248,0.0,4.0,97,0.00,,,0.06,Wunderground v.1.15,2013-06-17 02:59:00,
2013-06-16 23:01:00,57.6,56.8,29.75,WNW,284,3.0,4.0,97,0.00,,,0.06,Wunderground v.1.15,2013-06-17 03:01:00,
2013-06-16 23:03:00,57.6,56.8,29.75,WNW,285,0.0,4.0,97,0.00,,,0.06,Wunderground v.1.15,2013-06-17 03:03:00,
2013-06-16 23:05:00,57.5,56.7,29.75,SW,214,0.0,4.0,97,0.00,,,0.06,Wunderground v.1.15,2013-06-17 03:05:00,
2013-06-16 23:06:00,57.5,56.7,29.75,SW,214,0.0,4.0,97,0.00,,,0.06,Wunderground v.1.15,2013-06-17 03:06:00,
2013-06-16 23:07:00,57.5,56.7,29.75,SW,214,0.0,4.0,97,0.00,,,0.06,Wunderground v.1.15,2013-06-17 03:07:00,
2013-06-16 23:08:00,57.4,56.6,29.75,South,176,0.0,4.0,97,0.00,,,0.06,Wunderground v.1.15,2013-06-17 03:08:00,
2013-06-16 23:09:00,57.4,56.6,29.75,South,176,0.0,4.0,97,0.00,,,0.06,Wunderground v.1.15,2013-06-17 03:09:00,
2013-06-16 23:10:00,57.3,56.2,29.75,WNW,292,0.0,4.0,96,0.00,,,0.06,Wunderground v.1.15,2013-06-17 03:10:00,
2013-06-16 23:12:00,57.3,56.5,29.75,West,281,0.0,4.0,97,0.00,,,0.06,Wunderground v.1.15,2013-06-17 03:12:00,
2013-06-16 23:13:00,57.3,56.5,29.75,SW,224,0.0,4.0,97,0.00,,,0.06,Wunderground v.1.15,2013-06-17 03:13:00,
2013-06-16 23:14:00,57.3,56.5,29.75,South,188,0.0,4.0,97,0.00,,,0.06,Wunderground v.1.15,2013-06-17 03:14:00,
2013-06-16 23:15:00,57.3,56.5,29.75,WSW,256,1.0,4.0,97,0.00,,,0.06,Wunderground v.1.15,2013-06-17 03:15:00,
2013-06-16 23:17:00,57.3,56.5,29.76,SSW,211,2.0,4.0,97,0.00,,,0.06,Wunderground v.1.15,2013-06-17 03:17:00,
2013-06-16 23:19:00,57.3,56.5,29.75,NW,310,0.0,4.0,97,0.00,,,0.06,Wunderground v.1.15,2013-06-17 03:19:00,
2013-06-16 23:20:00,57.3,56.5,29.76,West,271,0.0,1.0,97,0.00,,,0.06,Wunderground v.1.15,2013-06-17 03:20:00,
2013-06-16 23:22:00,57.3,56.5,29.76,West,279,4.0,4.0,97,0.00,,,0.06,Wunderground v.1.15,2013-06-17 03:22:00,
2013-06-16 23:24:00,57.3,56.5,29.76,SW,217,0.0,4.0,97,0.00,,,0.06,Wunderground v.1.15,2013-06-17 03:24:00,
2013-06-16 23:25:00,57.2,56.4,29.76,WSW,256,0.0,4.0,97,0.00,,,0.06,Wunderground v.1.15,2013-06-17 03:25:00,
2013-06-16 23:27:00,57.2,56.1,29.76,WNW,300,0.0,4.0,96,0.00,,,0.06,Wunderground v.1.15,2013-06-17 03:27:00,
2013-06-16 23:28:00,57.2,56.1,29.76,WNW,291,2.0,4.0,96,0.00,,,0.06,Wunderground v.1.15,2013-06-17 03:28:00,
2013-06-16 23:29:00,57.2,56.1,29.76,SW,232,0.0,4.0,96,0.00,,,0.06,Wunderground v.1.15,2013-06-17 03:29:00,
2013-06-16 23:30:00,57.2,56.1,29.76,SW,232,0.0,4.0,96,0.00,,,0.06,Wunderground v.1.15,2013-06-17 03:30:00,
2013-06-16 23:31:00,57.1,56.0,29.76,SW,232,0.0,1.0,96,0.00,,,0.06,Wunderground v.1.15,2013-06-17 03:31:00,
2013-06-16 23:33:00,57.1,56.0,29.76,WSW,240,0.0,2.0,96,0.00,,,0.06,Wunderground v.1.15,2013-06-17 03:33:00,
2013-06-16 23:34:00,57.1,56.0,29.76,WSW,240,0.0,2.0,96,0.00,,,0.06,Wunderground v.1.15,2013-06-17 03:34:00,
2013-06-16 23:35:00,57.1,56.0,29.76,WSW,246,0.0,2.0,96,0.00,,,0.06,Wunderground v.1.15,2013-06-17 03:35:00,
2013-06-16 23:37:00,57.1,56.0,29.76,WNW,290,0.0,2.0,96,0.00,,,0.06,Wunderground v.1.15,2013-06-17 03:37:00,
2013-06-16 23:38:00,57.1,56.0,29.76,WNW,290,0.0,2.0,96,0.00,,,0.06,Wunderground v.1.15,2013-06-17 03:38:00,
2013-06-16 23:39:00,57.1,56.0,29.76,WNW,290,0.0,2.0,96,0.00,,,0.06,Wunderground v.1.15,2013-06-17 03:39:00,
2013-06-16 23:40:00,57.1,56.0,29.76,WNW,290,0.0,0.0,96,0.00,,,0.06,Wunderground v.1.15,2013-06-17 03:40:00,
2013-06-16 23:41:00,57.1,56.0,29.76,WNW,290,0.0,0.0,96,0.00,,,0.06,Wunderground v.1.15,2013-06-17 03:41:00,
2013-06-16 23:43:00,57.1,56.0,29.76,West,273,2.0,4.0,96,0.00,,,0.06,Wunderground v.1.15,2013-06-17 03:43:00,
2013-06-16 23:44:00,57.1,56.0,29.76,WSW,246,0.0,4.0,96,0.00,,,0.06,Wunderground v.1.15,2013-06-17 03:44:00,
2013-06-16 23:45:00,57.1,56.0,29.76,NW,325,3.0,4.0,96,0.00,,,0.06,Wunderground v.1.15,2013-06-17 03:45:00,
2013-06-16 23:46:00,57.1,56.0,29.76,WSW,258,1.0,4.0,96,0.00,,,0.06,Wunderground v.1.15,2013-06-17 03:46:00,
2013-06-16 23:48:00,57.1,56.0,29.76,WSW,258,0.0,4.0,96,0.00,,,0.06,Wunderground v.1.15,2013-06-17 03:48:00,
2013-06-16 23:49:00,57.1,56.0,29.76,WSW,255,0.0,5.0,96,0.00,,,0.06,Wunderground v.1.15,2013-06-17 03:49:00,
2013-06-16 23:50:00,57.1,56.0,29.76,WSW,255,0.0,1.0,96,0.00,,,0.06,Wunderground v.1.15,2013-06-17 03:50:00,
2013-06-16 23:52:00,57.1,56.0,29.76,WSW,245,0.0,2.0,96,0.00,,,0.06,Wunderground v.1.15,2013-06-17 03:52:00,
2013-06-16 23:54:00,57.1,56.0,29.76,SSW,197,0.0,2.0,96,0.00,,,0.06,Wunderground v.1.15,2013-06-17 03:54:00,
2013-06-16 23:55:00,57.1,56.0,29.76,WSW,240,0.0,5.0,96,0.00,,,0.06,Wunderground v.1.15,2013-06-17 03:55:00,
2013-06-16 23:56:00,57.1,56.0,29.76,WSW,250,1.0,5.0,96,0.00,,,0.06,Wunderground v.1.15,2013-06-17 03:56:00,
2013-06-16 23:57:00,57.1,56.0,29.76,SSE,158,1.0,5.0,96,0.00,,,0.06,Wunderground v.1.15,2013-06-17 03:57:00,
2013-06-16 23:59:00,57.1,56.0,29.76,WNW,299,0.0,5.0,96,0.00,,,0.06,Wunderground v.1.15,2013-06-17 03:59:00,